EW3082 Weather Reports


time (UTC)temp
F
wind
direction
speed
knots
gust
knots
rain 1hr
in
rain 24hr
in
rain mn
in
humidity
%
barometer
mb
20260505130157 49 65 1.7 6.1 1.26 1.05 9.43 85 1010.1
20260505130133 49 74 1.7 7.8 1.25 1.05 9.42 85 1010.1
20260505130108 48 48 0.9 7.8 1.27 1.05 9.42 85 1010.2
20260505125018 49 91 0.9 4.3 1.43 1.04 9.28 85 1010.1
20260505124921 49 68 0.9 4.3 1.44 1.04 9.26 84 1010.1
20260505124824 49 68 0.9 4.3 1.49 1.03 9.24 84 1010.1
20260505124658 49 49 0.9 4.3 1.49 1.03 9.20 84 1010.1
20260505124619 48 75 0.9 4.3 1.47 1.03 9.18 84 1010.0
20260505124557 49 47 0.9 4.3 1.45 1.03 9.16 84 1010.0
20260505124521 49 77 1.7 4.3 1.45 1.02 9.14 84 1010.0
20260505124424 49 92 1.7 5.2 1.43 1.02 9.12 84 1010.0
20260505124259 49 53 1.7 5.2 1.41 1.01 9.02 84 1010.0
20260505124214 49 44 1.7 5.2 1.40 1.01 8.98 84 1009.9
20260505124118 49 77 0.9 5.2 1.42 1.01 8.98 83 1009.8
20260505124012 49 53 0.9 5.2 1.45 1.01 8.98 84 1009.8
20260505123936 49 93 0.9 5.2 1.52 1.01 8.98 84 1009.7
20260505123817 49 110 1.7 5.2 1.55 1.01 8.98 83 1009.6
20260505123732 49 56 1.7 5.2 1.54 1.01 8.98 83 1009.6
20260505123619 49 93 1.7 5.2 1.55 1.01 8.98 83 1009.6
20260505123514 49 68 2.6 5.2 1.55 1.01 8.98 82 1009.6
20260505123438 49 71 2.6 5.2 1.60 1.01 8.98 82 1009.7
20260505123312 49 79 1.7 5.2 1.60 1.01 8.97 82 1009.9
20260505123207 49 80 1.7 5.2 1.57 1.00 8.94 82 1010.0
20260505123111 49 80 1.7 6.1 1.56 1.00 8.93 82 1010.1
20260505123049 48 36 0.9 6.1 1.56 1.00 8.93 81 1010.1
20260505123007 49 80 1.7 6.1 1.56 1.00 8.93 81 1010.2
20260505122905 49 57 1.7 6.1 1.56 1.00 8.93 81 1010.1
20260505122809 49 57 2.6 6.1 1.62 1.00 8.93 81 1010.1
20260505122704 49 64 1.7 6.1 1.61 9.99 8.85 81 1010.1
20260505122559 49 84 0.9 6.1 1.60 9.95 8.81 81 1010.1
20260505122503 49 91 1.7 6.1 1.64 9.92 8.78 81 1010.0
20260505122358 49 72 2.6 6.1 1.69 9.90 8.76 81 1010.0
20260505122321 49 70 1.7 6.1 1.67 9.88 8.74 81 1010.0
20260505122200 49 72 1.7 5.2 1.70 9.83 8.69 81 1010.0
20260505122114 49 72 1.7 5.2 1.79 9.82 8.68 81 1010.1
20260505122018 49 35 1.7 6.1 1.83 9.82 8.68 81 1010.1
20260505121912 49 72 2.6 6.1 1.80 9.80 8.66 81 1010.2
20260505121807 49 54 2.6 6.1 1.79 9.79 8.65 81 1010.1
20260505121703 49 84 0.9 6.1 1.79 9.75 8.61 82 1010.1
20260505121611 49 98 0.9 6.1 1.82 9.73 8.59 82 1010.1
20260505121535 49 98 0.9 6.1 1.81 9.72 8.58 81 1010.1
20260505121505 49 20 0.9 6.1 1.81 9.69 8.55 81 1010.1
20260505121430 49 69 1.7 6.1 1.82 9.63 8.49 82 1010.0
20260505121334 49 59 2.6 6.1 1.88 9.62 8.48 81 1009.9
20260505121207 49 341 2.6 7.0 1.94 9.62 8.48 82 1009.9
20260505121101 49 77 1.7 7.0 1.94 9.60 8.46 82 1009.9
20260505121025 49 101 1.7 7.0 1.92 9.59 8.45 81 1009.9
20260505120859 49 68 0.9 7.0 1.94 9.51 8.37 82 1009.8
20260505120759 49 91 0.9 7.0 1.90 9.43 8.29 82 1009.8
20260505120723 49 62 0.0 7.0 1.86 9.39 8.25 82 1009.8
20260505120617 49 89 0.9 7.0 1.96 9.37 8.23 81 1009.8
20260505120543 49 89 2.6 7.0 1.96 9.37 8.23 81 1009.7
20260505120357 49 69 2.6 7.0 1.95 9.34 8.20 81 1009.8
20260505120311 49 102 1.7 7.0 1.93 9.33 8.19 81 1009.7
20260505120216 49 51 1.7 7.0 1.96 9.31 8.17 81 1009.8
20260505120145 49 48 1.7 7.0 1.96 9.31 8.17 81 1009.8
20260505120126 49 51 2.6 7.0 1.95 9.29 8.15 81 1009.8
20260505120035 49 59 3.5 7.8 1.99 9.28 8.14 80 1009.8
20260505115908 49 58 2.6 7.8 2.01 9.28 8.14 81 1009.8
20260505115811 49 82 2.6 8.7 2.01 9.26 8.12 81 1009.7
20260505115726 49 49 2.6 8.7 2.01 9.23 8.09 81 1009.7
20260505115609 49 65 1.7 8.7 1.99 9.16 8.02 81 1009.6
20260505115504 49 72 1.7 8.7 1.96 9.11 7.97 81 1009.5
20260505115400 49 79 1.7 8.7 1.93 9.07 7.93 81 1009.5
20260505115307 49 69 2.6 8.7 1.90 9.03 7.89 81 1009.5
20260505115222 49 56 4.3 8.7 1.93 9.00 7.86 80 1009.5
20260505115105 49 65 5.2 8.7 1.98 8.99 7.85 79 1009.5
20260505115000 49 60 3.5 8.7 2.00 8.97 7.83 80 1009.5
20260505114925 50 93 2.6 7.8 1.98 8.96 7.82 80 1009.5
20260505114800 50 55 2.6 7.8 1.90 8.85 7.71 79 1009.5
20260505114715 50 84 2.6 7.8 1.93 8.84 7.70 78 1009.5
20260505114622 50 73 2.6 7.8 1.93 8.84 7.70 78 1009.6
20260505114554 49 63 2.6 7.8 2.00 8.84 7.70 78 1009.6
20260505114517 50 38 3.5 7.8 1.98 8.81 7.69 78 1009.6
20260505114440 50 38 4.3 7.8 2.00 8.78 7.64 78 1009.6
20260505114313 50 16 2.6 7.8 1.99 8.74 7.60 79 1009.7
20260505114205 50 62 1.7 7.8 2.02 8.71 7.57 79 1009.7
20260505114129 50 60 2.6 7.8 2.07 8.68 7.54 78 1009.7
20260505114003 50 66 2.6 7.8 2.07 8.63 7.49 78 1009.8
20260505113907 50 40 1.7 5.2 2.04 8.59 7.46 79 1009.9
20260505113806 50 53 0.9 5.2 2.08 8.57 7.43 78 1010.0
20260505113709 50 54 0.9 7.0 2.14 8.57 7.43 77 1010.0
20260505113604 50 74 0.0 7.0 2.18 8.57 7.43 77 1010.1
20260505113459 50 37 0.9 7.0 2.23 8.56 7.42 77 1010.0
20260505113403 50 42 1.7 7.0 2.25 8.52 7.38 77 1009.9
20260505113319 50 36 1.7 7.0 2.30 8.50 7.36 77 1009.9
20260505113242 50 62 1.7 7.0 2.32 8.50 7.36 78 1009.8
20260505113145 50 41 2.6 7.0 2.32 8.50 7.36 77 1009.8
20260505113106 49 58 2.6 7.0 2.37 8.50 7.36 77 1009.7
20260505113005 50 68 2.6 7.0 2.44 8.50 7.36 77 1009.7
20260505112858 50 63 2.6 7.0 2.48 8.50 7.36 77 1009.5
20260505112823 50 6 2.6 7.0 2.46 8.49 7.35 77 1009.5
20260505112717 50 11 2.6 7.0 2.43 8.38 7.24 77 1009.5
20260505112620 50 76 2.6 5.2 2.46 8.35 7.21 77 1009.5
20260505112515 50 55 2.6 5.2 2.38 8.25 7.11 78 1009.6
20260505112440 50 68 1.7 4.3 2.38 8.20 7.06 79 1009.6
20260505112257 50 51 0.9 6.1 2.39 8.14 7.00 78 1009.7
20260505112212 50 63 0.9 6.1 2.37 8.08 6.99 78 1009.7
20260505112116 50 51 0.0 6.1 2.38 8.03 6.89 78 1009.6
20260505112011 50 57 0.0 7.8 2.42 7.99 6.85 78 1009.6
20260505111906 50 57 0.9 8.7 2.48 7.99 6.85 78 1009.4
20260505111810 50 15 0.9 8.7 2.50 7.99 6.85 78 1009.4
20260505111705 50 328 1.7 8.7 2.51 7.94 6.82 77 1009.2
20260505111624 49 66 1.7 10.4 2.48 7.90 6.76 77 1009.2
20260505111603 50 84 2.6 10.4 2.51 7.89 6.76 77 1009.1
20260505111507 50 72 3.5 10.4 2.51 7.87 6.73 77 1009.0
20260505111402 50 77 4.3 10.4 2.48 7.81 6.67 77 1009.0
20260505111257 50 25 4.3 10.4 2.41 7.71 6.57 77 1009.0
20260505111221 50 51 3.5 10.4 2.41 7.68 6.54 77 1009.0
20260505111124 50 62 4.3 10.4 2.39 7.66 6.52 77 1009.0
20260505110959 50 14 3.5 10.4 2.38 7.57 6.43 77 1009.0
20260505110858 50 54 5.2 10.4 2.39 7.55 6.41 77 1009.0
20260505110822 50 83 5.2 10.4 2.37 7.53 6.39 77 1009.0
20260505110656 50 88 4.3 10.4 2.29 7.45 6.31 78 1009.0
20260505110611 50 91 3.5 10.4 2.29 7.41 6.27 78 1009.0
20260505110536 50 79 3.5 10.4 2.34 7.39 6.25 78 1009.0
20260505110439 50 120 5.2 10.4 2.35 7.39 6.25 78 1008.9
20260505110312 50 91 5.2 10.4 2.35 7.37 6.23 78 1009.0
20260505110236 50 62 3.5 9.6 2.36 7.34 6.20 79 1008.9
20260505110153 49 58 2.6 9.6 2.33 7.31 6.17 79 1008.9
20260505110121 50 61 2.6 9.6 2.31 7.29 6.15 79 1008.9
20260505102205 50 29 3.5 7.0 1.57 5.70 4.56 77 1009.4
20260505102113 50 102 3.5 7.0 1.52 5.65 4.51 77 1009.4
20260505102008 50 65 2.6 7.0 1.44 5.57 4.43 78 1009.5
20260505101903 50 40 2.6 7.0 1.37 5.50 4.36 78 1009.5
20260505101807 50 37 3.5 7.0 1.32 5.45 4.31 77 1009.4
20260505101702 50 67 1.7 5.2 1.26 5.40 4.26 79 1009.4
20260505101614 49 63 0.9 5.2 1.24 5.36 4.22 79 1009.4
20260505101557 50 66 1.7 5.2 1.24 5.36 4.22 79 1009.4
20260505101459 50 78 1.7 7.0 1.22 5.34 4.20 79 1009.4
20260505101358 50 56 1.7 7.0 1.20 5.31 4.17 79 1009.4
20260505101302 50 44 1.7 7.0 1.22 5.27 4.15 79 1009.4
20260505101157 50 57 1.7 7.8 1.28 5.27 4.13 79 1009.4
20260505101121 50 46 1.7 8.7 1.27 5.25 4.11 79 1009.4
20260505100956 50 63 2.6 8.7 1.25 5.19 4.05 79 1009.5
20260505100911 50 58 2.6 8.7 1.27 5.16 4.02 79 1009.5
20260505100835 50 34 2.6 8.7 1.28 5.15 4.01 78 1009.5
20260505100713 50 56 3.5 8.7 1.33 5.15 4.01 78 1009.5
20260505100617 50 63 3.5 8.7 1.33 5.11 3.97 78 1009.4
20260505100512 50 63 3.5 9.6 1.31 5.04 3.90 78 1009.4
20260505100407 50 64 4.3 9.6 1.36 5.02 3.88 78 1009.4
20260505100310 50 343 3.5 11.3 1.35 5.01 3.87 78 1009.4
20260505100205 50 62 2.6 11.3 1.36 4.98 3.84 78 1009.4
20260505100122 50 70 2.6 11.3 1.32 4.94 3.80 78 1009.3
20260505100047 49 33 2.6 11.3 1.33 4.91 3.77 78 1009.3
20260505100005 50 81 2.6 11.3 1.35 4.89 3.75 78 1009.3
20260505095859 50 21 4.3 11.3 1.33 4.85 3.71 78 1009.2
20260505095803 50 119 4.3 11.3 1.34 4.83 3.69 78 1009.2
20260505095657 50 80 4.3 11.3 1.32 4.80 3.69 78 1009.1
20260505095621 50 340 5.2 11.3 1.29 4.77 3.63 78 1009.0
20260505095515 50 73 3.5 10.4 1.23 4.70 3.56 78 1009.1
20260505095410 50 66 2.6 9.6 1.19 4.65 3.51 79 1009.0
20260505095317 50 39 2.6 9.6 1.19 4.62 3.48 79 1009.1
20260505095212 50 89 2.6 12.2 1.19 4.61 3.47 79 1009.0
20260505095107 50 129 2.6 12.2 1.20 4.60 3.46 79 1009.0
20260505095031 50 65 2.6 12.2 1.23 4.58 3.44 79 1009.0
20260505094904 50 116 3.5 12.2 1.25 4.54 3.40 78 1009.1
20260505094828 50 58 3.5 12.2 1.26 4.51 3.37 79 1009.1
20260505094702 50 70 3.5 12.2 1.21 4.45 3.34 79 1009.2
20260505094626 50 48 4.3 12.2 1.19 4.41 3.27 79 1009.2
20260505094535 49 68 3.5 12.2 1.16 4.38 3.24 79 1009.2
20260505094505 50 28 3.5 12.2 1.19 4.35 3.21 79 1009.2
20260505094428 50 30 2.6 9.6 1.22 4.31 3.17 80 1009.1
20260505094301 50 32 3.5 7.8 1.26 4.31 3.17 80 1009.2
20260505094156 50 51 3.5 7.8 1.28 4.31 3.17 80 1009.1
20260505094121 50 41 2.6 11.3 1.27 4.30 3.16 80 1009.1
20260505094045 50 25 1.7 11.3 1.29 4.29 3.16 80 1009.1
20260505093858 50 41 2.6 11.3 1.34 4.27 3.13 80 1009.2
20260505093757 50 68 1.7 11.3 1.38 4.25 3.11 80 1009.2
20260505093722 50 68 1.7 11.3 1.38 4.25 3.11 80 1009.1
20260505093645 50 352 2.6 11.3 1.39 4.25 3.11 80 1009.1
20260505093519 50 91 2.6 11.3 1.49 4.25 3.11 80 1009.1
20260505093413 50 49 3.5 11.3 1.50 4.25 3.11 79 1009.1
20260505093309 50 48 3.5 11.3 1.52 4.24 3.10 80 1009.1
20260505093213 50 84 3.5 8.7 1.51 4.22 3.08 80 1009.1
20260505093139 49 72 4.3 8.7 1.49 4.20 3.06 80 1009.1
20260505093107 50 63 3.5 8.7 1.47 4.17 3.03 80 1009.0
20260505093017 50 62 2.6 9.6 1.49 4.15 3.01 81 1009.0
20260505092911 50 30 2.6 9.6 1.51 4.15 3.01 80 1009.0
20260505092834 49 65 2.6 9.6 1.54 4.14 3.00 81 1008.9
20260505092708 50 3 1.7 9.6 1.57 4.13 2.99 81 1008.8
20260505092603 50 31 2.6 9.6 1.58 4.13 2.99 81 1008.8
20260505092458 50 16 3.5 9.6 1.61 4.13 2.99 80 1008.7
20260505092402 49 26 4.3 9.6 1.62 4.13 2.99 80 1008.5
20260505092310 49 93 5.2 9.6 1.62 4.13 2.99 80 1008.6
20260505092224 49 63 3.5 9.6 1.63 4.13 2.99 80 1008.5
20260505092127 49 75 2.6 8.7 1.69 4.13 2.99 81 1008.5
20260505092001 49 40 3.5 8.7 1.70 4.13 2.99 81 1008.5
20260505091906 49 56 2.6 8.7 1.70 4.13 2.99 81 1008.4
20260505091800 49 34 3.5 7.8 1.74 4.13 2.99 81 1008.3
20260505091715 49 78 2.6 7.8 1.76 4.13 2.99 82 1008.4
20260505091618 49 342 2.6 11.3 1.78 4.12 2.98 82 1008.3
20260505091524 49 26 2.6 11.3 1.78 4.12 2.98 82 1008.3
20260505091456 49 1 2.6 11.3 1.80 4.12 2.98 82 1008.4
20260505091420 49 57 1.7 11.3 1.83 4.11 2.97 82 1008.3
20260505091315 49 50 1.7 11.3 1.80 4.05 2.91 82 1008.4
20260505091210 49 65 3.5 11.3 1.76 3.98 2.84 82 1008.3
20260505091114 49 72 2.6 11.3 1.75 3.95 2.81 83 1008.3
20260505091009 49 74 3.5 11.3 1.76 3.91 2.79 83 1008.3
20260505090904 49 77 6.1 11.3 1.79 3.88 2.74 83 1008.3
20260505090812 49 54 4.3 11.3 1.79 3.85 2.71 83 1008.3
20260505090707 49 50 3.5 8.7 1.75 3.81 2.67 84 1008.4
20260505090602 49 75 4.3 8.7 1.73 3.77 2.63 85 1008.3
20260505090507 49 46 4.3 8.7 1.73 3.73 2.59 85 1008.3
20260505090421 49 63 4.3 8.7 1.70 3.66 2.52 85 1008.2
20260505090304 49 63 3.5 8.7 1.72 3.64 2.50 86 1008.2
20260505090159 49 8 2.6 8.7 1.70 3.60 2.46 86 1008.2
20260505090135 49 77 3.5 8.7 1.71 3.58 2.44 85 1008.2
20260505090014 48 356 2.6 8.7 1.68 3.53 2.39 86 1008.2
20260505085958 49 70 3.5 8.7 1.66 3.52 2.38 86 1008.2
20260505085900 49 60 3.5 8.7 1.71 3.52 2.38 86 1008.1
20260505085815 49 66 3.5 8.7 1.74 3.49 2.35 86 1007.9
20260505085719 49 71 2.6 7.8 1.76 3.47 2.33 86 1007.9
20260505085613 49 32 2.6 10.4 1.76 3.47 2.33 86 1007.8
20260505085517 49 53 2.6 10.4 1.80 3.47 2.33 86 1007.8
20260505085411 49 59 3.5 10.4 1.81 3.45 2.31 86 1007.8
20260505085335 49 23 2.6 10.4 1.78 3.42 2.28 86 1007.7
20260505085212 49 39 2.6 10.4 1.79 3.41 2.27 86 1007.7
20260505085107 49 30 2.6 10.4 1.79 3.37 2.23 86 1007.6
20260505085011 49 255 3.5 10.4 1.78 3.34 2.20 86 1007.5
20260505084906 49 358 6.1 10.4 1.73 3.29 2.15 86 1007.5
20260505084801 49 39 6.1 10.4 1.71 3.25 2.11 86 1007.5
20260505084705 49 27 3.5 9.6 1.70 3.22 2.08 86 1007.5
20260505084604 49 29 4.3 8.7 1.72 3.19 2.08 86 1007.5
20260505084526 48 28 3.5 8.7 1.69 3.16 2.02 87 1007.5
20260505084459 49 42 4.3 8.7 1.66 3.13 1.99 87 1007.4
20260505084403 49 82 3.5 8.7 1.62 3.09 1.95 87 1007.3
20260505084318 49 36 3.5 13.0 1.57 3.03 1.89 87 1007.3
20260505084201 49 62 2.6 13.0 1.57 3.03 1.89 87 1007.2
20260505084056 49 57 1.7 13.0 1.58 2.99 1.85 87 1007.1
20260505084020 49 27 1.7 13.0 1.61 2.99 1.85 87 1007.0
20260505083858 49 349 2.6 17.4 1.57 2.93 1.79 87 1006.8
20260505083813 49 304 2.6 17.4 1.55 2.87 1.73 87 1006.5
20260505083717 49 32 4.3 17.4 1.57 2.85 1.71 86 1006.2
20260505083611 49 22 4.3 17.4 1.55 2.81 1.67 86 1005.9
20260505083506 49 344 6.1 17.4 1.53 2.75 1.61 86 1005.9
20260505083430 49 37 7.0 17.4 1.53 2.74 1.60 86 1005.8
20260505083304 49 45 7.0 17.4 1.52 2.72 1.58 86 1005.7
20260505083228 49 14 7.8 17.4 1.52 2.70 1.56 86 1005.7
20260505083135 48 60 7.0 17.4 1.52 2.70 1.56 86 1005.7
20260505083106 49 63 6.1 17.4 1.54 2.68 1.54 87 1005.7
20260505083012 49 70 3.5 16.5 1.51 2.66 1.52 87 1005.7
20260505082906 49 64 4.3 16.5 1.46 2.60 1.46 86 1005.6
20260505082801 49 73 7.0 16.5 1.41 2.56 1.42 86 1005.6
20260505082724 49 39 7.0 16.5 1.41 2.56 1.42 86 1005.6
20260505082559 49 68 6.1 16.5 1.40 2.54 1.40 86 1005.9
20260505082514 49 103 6.1 16.5 1.38 2.52 1.38 86 1006.0
20260505082421 49 38 7.8 16.5 1.37 2.51 1.38 86 1006.0
20260505082316 49 63 6.1 16.5 1.37 2.51 1.37 86 1006.0
20260505082219 49 13 4.3 9.6 1.35 2.49 1.35 85 1005.9
20260505082113 49 57 5.2 11.3 1.29 2.43 1.29 85 1005.9
20260505082037 50 44 4.3 11.3 1.28 2.42 1.28 85 1006.2
20260505081910 50 38 3.5 11.3 1.28 2.42 1.28 85 1006.8
20260505081834 50 96 4.3 11.3 1.24 2.38 1.24 85 1007.3
20260505081708 50 67 3.5 11.3 1.22 2.36 1.22 85 1007.6
20260505081617 50 68 3.5 11.3 1.20 2.34 1.20 84 1007.8
20260505081615 49 50 3.5 11.3 1.20 2.34 1.20 84 1007.8
20260505081510 50 94 4.3 11.3 1.14 2.28 1.14 84 1008.0
20260505081405 50 64 4.3 11.3 1.12 2.26 1.12 84 1008.0
20260505081300 50 70 3.5 11.3 1.09 2.23 1.09 85 1008.1
20260505081203 50 37 1.7 7.8 1.07 2.21 1.08 85 1008.1
20260505081059 50 49 2.6 7.8 1.03 2.17 1.03 85 1008.1
20260505081023 50 49 3.5 7.8 1.03 2.17 1.03 85 1008.1
20260505080902 50 84 5.2 7.8 9.48 2.08 9.48 85 1008.3
20260505080817 50 55 4.3 7.8 9.24 2.06 9.24 85 1008.5
20260505080700 50 71 2.6 5.2 9.24 2.06 9.24 85 1008.8
20260505080614 50 50 1.7 4.3 9.00 2.04 9.00 85 1008.8
20260505080519 50 46 0.9 3.5 8.59 1.99 8.59 85 1008.8
20260505080434 50 64 0.9 3.5 8.16 1.95 8.16 84 1008.9
20260505080316 50 58 0.9 3.5 7.81 1.92 7.81 84 1009.0
20260505080155 50 70 0.9 3.5 7.44 1.88 7.44 84 1009.0
20260505080130 50 68 0.9 3.5 7.27 1.86 7.27 84 1009.0
20260505080050 50 53 0.0 5.2 7.16 1.85 7.16 84 1009.1
20260505080009 51 63 0.0 5.2 7.16 1.85 7.16 84 1009.1
20260505075903 51 58 0.9 5.2 6.63 1.80 6.63 84 1009.1
20260505075806 51 47 1.7 5.2 6.07 1.74 6.07 84 1009.1
20260505075700 51 48 0.9 5.2 5.74 1.71 5.74 84 1009.2
20260505075604 51 70 0.9 5.2 5.50 1.69 5.50 85 1009.2
20260505075500 51 49 0.9 5.2 5.00 1.64 5.29 84 1009.1
20260505075359 51 53 1.7 5.2 4.99 1.63 4.99 84 1009.2
20260505075304 51 62 2.6 5.2 4.79 1.61 4.79 84 1009.3
20260505075217 51 58 1.7 5.2 4.62 1.60 4.62 84 1009.4
20260505075100 51 60 0.0 3.5 4.38 1.57 4.38 85 1009.5
20260505074955 51 57 0.0 2.6 4.29 1.56 4.29 84 1009.6
20260505074920 51 50 0.0 2.6 4.14 1.55 4.14 84 1009.8
20260505074812 51 69 0.0 4.3 3.94 1.53 3.94 84 1009.9
20260505074711 51 56 0.0 4.3 3.43 1.48 3.43 84 1010.0
20260505074615 51 56 0.9 4.3 3.29 1.46 3.29 83 1010.0
20260505074538 51 56 0.9 4.3 3.29 1.46 3.29 83 1010.0
20260505074412 51 30 0.9 4.3 3.26 1.46 3.26 82 1010.0
20260505074307 52 32 0.9 7.8 3.23 1.46 3.23 82 1010.0
20260505074202 52 58 0.0 7.8 2.88 1.42 2.88 82 1010.0
20260505074106 52 51 0.9 7.8 2.55 1.39 2.55 82 1009.9
20260505074001 52 359 0.9 7.8 2.44 1.38 2.44 82 1010.0
20260505073859 52 327 1.7 7.8 1.90 1.33 1.90 81 1010.0
20260505073822 52 44 1.7 7.8 1.51 1.29 1.51 80 1010.0
20260505073704 52 320 2.6 7.8 1.38 1.27 1.38 80 1009.9
20260505073558 52 26 4.3 7.8 1.11 1.25 1.11 79 1009.9
20260505073504 53 311 4.3 7.8 0.78 1.21 0.78 80 1009.8
20260505073417 53 295 4.3 7.8 0.67 1.20 0.67 80 1009.6
20260505073341 53 351 4.3 7.8 0.67 1.20 0.67 80 1009.6
20260505073244 53 351 4.3 7.8 0.38 1.17 0.38 80 1009.6
20260505073102 53 329 4.3 7.8 0.04 1.14 0.04 80 1009.4
20260505073048 53 16 3.5 7.8 0.04 1.14 0.04 80 1009.4
20260505072959 53 285 4.3 7.0 0.03 1.14 0.03 80 1009.4
20260505072922 53 8 4.3 7.0 0.03 1.14 0.03 80 1009.3
20260505072817 53 352 4.3 7.0 0.02 1.14 0.02 80 1009.1
20260505072741 54 314 3.5 5.2 0.01 1.14 0.01 80 1009.1
20260505072614 54 323 2.6 4.3 0.00 1.14 0.00 80 1009.0
20260505072509 54 335 1.7 4.3 0.00 1.14 0.00 80 1009.0
20260505072412 54 333 2.6 4.3 0.00 1.14 0.00 79 1009.0
20260505072311 54 331 2.6 4.3 0.00 1.14 0.00 79 1008.9
20260505072206 55 9 1.7 4.3 0.00 1.14 0.00 79 1008.9
20260505072110 55 308 1.7 4.3 0.00 1.14 0.00 78 1008.9
20260505072005 55 328 1.7 4.3 0.00 1.14 0.00 80 1008.9
20260505071900 55 338 0.9 3.5 0.00 1.14 0.00 80 1008.7
20260505071755 55 299 0.9 7.0 0.00 1.14 0.00 80 1008.5
20260505071703 55 303 0.0 7.0 0.00 1.14 0.00 76 1008.4
20260505071629 55 309 0.0 7.0 0.00 1.14 0.00 77 1008.4
20260505071558 55 297 0.0 7.0 0.00 1.14 0.00 77 1008.1
20260505071523 55 3 0.0 7.0 0.00 1.14 0.00 77 1008.1
20260505071417 55 29 0.0 7.0 0.00 1.14 0.00 76 1007.9
20260505071320 56 27 0.0 7.0 0.00 1.14 0.00 76 1007.7
20260505071215 56 47 0.0 7.0 0.00 1.14 0.00 76 1007.6
20260505071140 56 66 1.7 7.0 0.00 1.14 0.00 74 1007.6
20260505071013 56 51 3.5 7.0 0.00 1.14 0.00 74 1007.5
20260505070921 56 80 2.6 7.0 0.00 1.14 0.00 74 1007.5
20260505070756 56 69 1.7 5.2 0.00 1.14 0.00 75 1007.4
20260505070710 56 51 1.7 5.2 0.00 1.14 0.00 73 1007.4
20260505070603 56 97 2.6 4.3 0.00 1.14 0.00 75 1007.4
20260505070507 56 62 2.6 5.2 0.00 1.14 0.00 74 1007.4
20260505070400 56 84 1.7 5.2 0.00 1.14 0.00 76 1007.5
20260505070304 56 70 0.0 5.2 0.00 1.14 0.00 76 1007.6
20260505070203 57 52 0.9 5.2 0.00 1.14 0.00 76 1007.7
20260505070140 57 49 0.9 5.2 0.00 1.14 0.00 75 1007.8
20260505070013 56 101 0.0 5.2 0.00 1.14 0.00 76 1007.8
20260505065957 57 29 0.9 5.2 0.00 1.14 0.00 76 1007.8
20260505065900 57 45 0.9 5.2 0.00 1.14 0.00 76 1007.8
20260505065755 57 68 1.7 5.2 0.00 1.14 0.00 74 1007.9
20260505065719 57 293 2.6 5.2 0.00 1.14 0.00 74 1008.0
20260505065614 57 326 2.6 5.2 0.00 1.14 0.00 77 1008.1
20260505065509 57 336 2.6 4.3 0.00 1.14 0.00 78 1008.0
20260505065417 57 294 0.9 4.3 0.00 1.14 0.00 79 1008.1
20260505065312 57 358 0.0 2.6 0.00 1.14 0.00 80 1008.0
20260505065207 57 320 0.0 0.0 0.00 1.14 0.00 79 1007.9
20260505065111 57 307 0.0 0.0 0.00 1.14 0.00 80 1007.8
20260505065005 57 301 0.0 0.9 0.00 1.14 0.00 82 1007.8
20260505064929 57 316 0.0 4.3 0.00 1.14 0.00 81 1007.8
20260505064803 57 316 0.0 4.3 0.00 1.14 0.00 80 1007.9
20260505064711 57 316 0.0 4.3 0.00 1.14 0.00 80 1007.8
20260505064606 57 322 0.0 4.3 0.00 1.14 0.00 81 1007.7
20260505064525 57 68 0.0 4.3 0.00 1.14 0.00 80 1007.5
20260505064500 58 68 0.0 4.3 0.00 1.14 0.00 79 1007.5
20260505064424 58 68 0.0 4.3 0.00 1.14 0.00 78 1007.4
20260505064258 58 68 0.0 4.3 0.00 1.14 0.00 77 1007.2
20260505064222 58 68 0.9 4.3 0.00 1.14 0.00 78 1007.0
20260505064056 58 29 0.9 4.3 0.00 1.14 0.00 79 1007.0
20260505064000 58 60 0.0 0.0 0.00 1.14 0.00 79 1006.9
20260505063919 58 11 0.0 0.0 0.00 1.14 0.00 79 1006.8
20260505063822 58 11 0.0 4.3 0.00 1.14 0.00 79 1006.8
20260505063656 58 42 0.0 4.3 0.00 1.14 0.00 80 1006.7
20260505063558 58 344 0.0 4.3 0.00 1.14 0.00 80 1006.7
20260505063522 58 84 0.0 4.3 0.00 1.14 0.00 79 1006.7
20260505063357 59 19 0.0 4.3 0.00 1.14 0.00 79 1006.6
20260505063312 59 18 0.0 4.3 0.00 1.14 0.00 79 1006.6
20260505063216 59 60 0.0 4.3 0.00 1.14 0.00 78 1006.6
20260505063131 58 62 0.0 4.3 0.00 1.14 0.00 78 1006.6
20260505063110 59 45 0.0 4.3 0.00 1.14 0.00 78 1006.6
20260505063020 59 67 0.9 4.3 0.00 1.14 0.00 78 1006.6
20260505062913 59 33 0.9 4.3 0.00 1.14 0.00 77 1006.6
20260505062815 59 54 0.9 4.3 0.00 1.14 0.00 76 1006.6
20260505062730 60 34 0.9 4.3 0.00 1.14 0.00 74 1006.5
20260505062613 60 38 0.9 4.3 0.00 1.14 0.00 75 1006.6
20260505062508 60 16 0.9 4.3 0.00 1.14 0.00 75 1006.7
20260505062403 60 320 1.7 4.3 0.00 1.14 0.00 74 1006.8
20260505062311 60 342 1.7 4.3 0.00 1.14 0.00 73 1006.9
20260505062206 60 314 0.0 2.6 0.00 1.14 0.00 75 1006.9
20260505062101 60 293 0.0 3.5 0.00 1.14 0.00 74 1006.9
20260505062005 60 320 0.0 3.5 0.00 1.14 0.00 74 1006.9
20260505061900 60 324 0.0 3.5 0.00 1.14 0.00 74 1006.8
20260505061824 60 325 0.9 3.5 0.00 1.14 0.00 74 1006.8
20260505061659 60 324 0.0 3.5 0.00 1.14 0.00 73 1006.7
20260505061640 60 325 0.0 3.5 0.00 1.14 0.00 73 1006.7
20260505061618 61 280 0.0 3.5 0.00 1.14 0.00 73 1006.5
20260505061521 61 319 0.0 5.2 0.00 1.14 0.00 73 1006.3
20260505061424 61 309 0.0 5.2 0.00 1.14 0.00 73 1006.3
20260505061318 61 51 0.9 5.2 0.00 1.14 0.00 72 1006.1
20260505061221 61 51 0.9 5.2 0.00 1.14 0.00 72 1006.1
20260505061124 61 46 0.0 7.8 0.00 1.14 0.00 72 1006.1
20260505061019 61 321 0.0 7.8 0.00 1.14 0.00 71 1005.9
20260505060922 61 339 0.0 7.8 0.00 1.14 0.00 71 1005.8
20260505060756 61 317 1.7 7.8 0.00 1.14 0.00 71 1005.7
20260505060720 61 56 1.7 7.8 0.00 1.14 0.00 71 1005.8
20260505060558 61 60 0.0 7.8 0.00 1.14 0.00 71 1005.7
20260505060522 61 30 0.0 7.8 0.00 1.14 0.00 70 1005.7
20260505060417 61 337 0.9 7.8 0.00 1.14 0.00 70 1005.7
20260505060340 61 32 0.9 7.8 0.00 1.14 0.00 69 1005.6
20260505060213 61 33 0.0 7.8 0.00 1.14 0.00 69 1005.5
20260505060129 61 39 0.0 7.8 0.00 1.14 0.00 69 1005.5
20260505060052 60 18 0.0 7.8 0.00 1.14 0.00 69 1005.5
20260505060008 61 62 0.9 7.8 0.00 1.14 0.00 69 1005.3
20260505055902 61 349 1.7 7.8 0.00 1.14 0.00 69 1005.4
20260505055810 61 59 2.6 7.8 0.00 1.14 0.00 68 1005.4
20260505055725 61 68 0.9 7.8 0.00 1.14 0.00 69 1005.4
20260505055608 61 55 2.6 7.8 0.00 1.14 0.00 68 1005.4
20260505055502 61 52 4.3 7.8 0.00 1.14 0.00 68 1005.4
20260505055427 61 77 1.7 7.0 0.00 1.14 0.00 68 1005.4
20260505055301 61 78 0.9 5.2 0.00 1.14 0.00 69 1005.3
20260505055156 61 38 1.7 5.2 0.00 1.14 0.00 69 1005.4
20260505055119 61 65 1.7 5.2 0.00 1.14 0.00 69 1005.4
20260505055026 61 37 0.9 5.2 0.00 1.14 0.00 69 1005.3
20260505054900 61 42 0.0 5.2 0.00 1.14 0.00 70 1005.3
20260505054824 61 79 1.7 13.9 0.00 1.14 0.00 69 1005.3
20260505054658 61 50 2.6 13.9 0.00 1.14 0.00 69 1005.3
20260505054623 61 44 1.7 13.9 0.00 1.14 0.00 69 1005.3
20260505054603 60 60 0.9 16.5 0.00 1.14 0.00 68 1005.2
20260505054458 61 53 0.0 16.5 0.00 1.14 0.00 69 1005.3
20260505054413 61 30 0.9 16.5 0.00 1.14 0.00 68 1005.3
20260505054317 61 39 1.7 16.5 0.00 1.14 0.00 69 1005.3
20260505054216 61 58 2.6 16.5 0.00 1.14 0.00 69 1005.2
20260505054139 61 49 5.2 17.4 0.00 1.14 0.00 68 1005.2
20260505054013 61 35 6.1 17.4 0.00 1.14 0.00 68 1005.2
20260505053908 61 38 7.0 17.4 0.00 1.14 0.00 68 1005.2
20260505053832 61 67 6.1 17.4 0.00 1.14 0.00 69 1005.2
20260505053735 61 68 3.5 17.4 0.00 1.14 0.00 70 1005.2
20260505053609 62 64 7.0 17.4 0.00 1.14 0.00 69 1005.2
20260505053504 62 53 8.7 17.4 0.00 1.14 0.00 68 1005.2
20260505053431 62 71 7.8 17.4 0.00 1.14 0.00 68 1005.3
20260505053304 62 14 8.7 17.4 0.00 1.14 0.00 67 1005.3
20260505053209 63 84 5.2 14.8 0.00 1.14 0.00 67 1005.3
20260505053103 63 73 2.6 14.8 0.00 1.14 0.00 67 1005.2
20260505053037 63 30 3.5 14.8 0.00 1.14 0.00 66 1005.2
20260505052958 64 104 5.2 14.8 0.00 1.14 0.00 64 1005.2
20260505052924 64 350 5.2 14.8 0.00 1.14 0.00 64 1005.2
20260505052757 65 58 6.1 14.8 0.00 1.14 0.00 61 1005.2
20260505052657 65 68 6.1 14.8 0.00 1.14 0.00 60 1005.2
20260505052620 65 38 7.0 14.8 0.00 1.14 0.00 59 1005.2
20260505052514 66 16 7.8 14.8 0.00 1.14 0.00 57 1005.1
20260505052410 66 41 5.2 14.8 0.00 1.14 0.00 57 1005.1
20260505052313 67 41 4.3 13.0 0.00 1.14 0.00 55 1005.0
20260505052209 67 84 4.3 13.0 0.00 1.14 0.00 54 1005.0
20260505052133 68 266 5.2 13.0 0.00 1.14 0.00 53 1005.2
20260505052010 68 77 6.1 13.0 0.00 1.14 0.00 51 1005.3
20260505051934 69 311 6.1 13.0 0.00 1.14 0.00 50 1005.3
20260505051808 69 88 4.3 11.3 0.00 1.14 0.00 49 1005.2
20260505051703 69 245 3.5 11.3 0.00 1.14 0.00 49 1005.1
20260505051606 69 267 2.6 11.3 0.00 1.14 0.00 49 1005.0
20260505051538 69 28 0.9 11.3 0.00 1.14 0.00 49 1005.0
20260505051501 69 312 1.7 11.3 0.00 1.14 0.00 50 1004.7
20260505051425 70 345 3.5 11.3 0.00 1.14 0.00 50 1004.7
20260505051259 70 64 5.2 11.3 0.00 1.14 0.00 50 1004.5
20260505051158 70 33 3.5 11.3 0.00 1.14 0.00 52 1004.4
20260505051122 70 53 1.7 11.3 0.00 1.14 0.00 56 1004.4
20260505050956 70 300 0.9 8.7 0.00 1.14 0.00 59 1004.3
20260505050901 70 345 2.6 8.7 0.00 1.14 0.00 63 1004.2
20260505050755 70 322 1.7 8.7 0.00 1.14 0.00 64 1004.1
20260505050720 70 68 1.7 8.7 0.00 1.14 0.00 68 1004.1
20260505050614 70 32 0.0 1.7 0.00 1.14 0.00 72 1004.1
20260505050513 70 328 0.0 0.0 0.00 1.14 0.00 72 1004.1
20260505050417 70 61 0.0 0.9 0.00 1.14 0.00 73 1004.1
20260505050312 70 352 0.0 0.9 0.00 1.14 0.00 73 1004.1
20260505050236 70 290 0.0 0.9 0.00 1.14 0.00 73 1004.0
20260505050145 69 20 0.0 0.9 0.00 1.14 0.00 73 1004.0
20260505050121 70 20 0.0 0.9 0.00 1.14 0.00 73 1004.0
20260505041725 70 186 0.0 6.1 0.00 1.14 1.14 73 1003.5
20260505041628 70 249 0.0 6.1 0.00 1.14 1.14 73 1003.5
20260505041533 69 278 0.0 6.1 0.00 1.14 1.14 73 1003.5
20260505041502 70 148 0.0 6.1 0.00 1.14 1.14 73 1003.5
20260505041357 70 217 0.0 6.1 0.00 1.14 1.14 73 1003.5
20260505041301 70 231 0.9 6.1 0.00 1.14 1.14 73 1003.6
20260505041200 70 124 0.9 6.1 0.00 1.14 1.14 73 1003.5
20260505041055 70 210 0.9 6.1 0.00 1.14 1.14 73 1003.6
20260505040959 70 218 1.7 6.1 0.00 1.14 1.14 73 1003.7
20260505040914 70 215 0.9 6.1 0.00 1.14 1.14 73 1003.7
20260505040818 70 221 0.0 5.2 0.00 1.14 1.14 73 1003.8
20260505040713 70 97 0.0 4.3 0.00 1.14 1.14 73 1003.8
20260505040608 70 125 0.9 4.3 0.00 1.14 1.14 73 1003.8
20260505040516 70 84 0.9 4.3 0.00 1.14 1.14 73 1003.8
20260505040431 70 183 0.0 0.0 0.00 1.14 1.14 73 1003.8
20260505040334 70 291 0.0 0.0 0.00 1.14 1.14 73 1003.8
20260505040208 70 239 0.0 0.0 0.00 1.14 1.14 73 1003.8
20260505040123 70 142 0.0 0.0 0.00 1.14 1.14 73 1003.8
20260505040036 69 250 0.0 2.6 0.00 1.14 1.14 73 1003.8
20260505040004 70 218 0.0 4.3 0.00 1.14 1.14 73 1003.8
20260505035906 70 172 0.0 4.3 0.00 1.14 1.14 72 1003.8
20260505035801 70 219 0.0 4.3 0.00 1.14 1.14 72 1003.8
20260505035700 70 189 0.0 4.3 0.00 1.14 1.14 72 1003.8
20260505035604 70 168 0.0 4.3 0.00 1.14 1.14 72 1003.8
20260505035459 70 221 0.0 4.3 0.00 1.14 1.14 72 1003.8
20260505035423 70 161 0.0 4.3 0.00 1.14 1.14 72 1003.8
20260505035257 70 195 0.9 4.3 0.00 1.14 1.14 72 1003.8
20260505035221 70 139 0.9 4.3 0.00 1.14 1.14 72 1003.8
20260505035115 70 177 0.0 4.3 0.00 1.14 1.14 72 1003.8
20260505035040 70 153 0.0 3.5 0.00 1.14 1.14 72 1003.8
20260505034858 70 226 0.9 3.5 0.00 1.14 1.14 72 1003.8
20260505034813 70 146 0.9 3.5 0.00 1.14 1.14 72 1003.8
20260505034717 70 216 0.9 3.5 0.00 1.14 1.14 72 1003.8
20260505034612 70 191 0.0 2.6 0.00 1.14 1.14 72 1003.9
20260505034534 70 250 0.0 0.0 0.00 1.14 1.14 72 1003.9
20260505034507 70 165 0.0 0.0 0.00 1.14 1.14 72 1003.9
20260505034402 70 200 0.0 0.9 0.00 1.14 1.14 72 1003.9
20260505034310 70 214 0.0 0.9 0.00 1.14 1.14 72 1003.9
20260505034205 70 155 0.0 2.6 0.00 1.14 1.14 72 1003.9
20260505034110 70 130 0.0 2.6 0.00 1.14 1.14 72 1003.9
20260505034003 70 144 0.0 2.6 0.00 1.14 1.14 72 1003.9
20260505033929 70 162 0.0 3.5 0.00 1.14 1.14 71 1003.9
20260505033801 70 165 0.0 3.5 0.00 1.14 1.14 71 1003.9
20260505033656 70 195 0.0 3.5 0.00 1.14 1.14 71 1003.9
20260505033621 70 189 0.0 3.5 0.00 1.14 1.14 71 1003.9
20260505033458 70 244 0.9 3.5 0.00 1.14 1.14 71 1003.8
20260505033403 70 212 0.9 6.1 0.00 1.14 1.14 71 1003.9
20260505033313 70 283 0.9 6.1 0.00 1.14 1.14 71 1003.8
20260505033218 70 190 0.9 6.1 0.00 1.14 1.14 71 1003.8
20260505033108 70 196 0.9 6.1 0.00 1.14 1.14 71 1003.9
20260505033040 70 114 0.0 6.1 0.00 1.14 1.14 71 1003.9
20260505033005 70 263 0.0 6.1 0.00 1.14 1.14 71 1003.9
20260505032859 70 136 0.0 6.1 0.00 1.14 1.14 71 1003.8
20260505032806 70 199 0.0 6.1 0.00 1.14 1.14 72 1003.8
20260505032701 70 174 0.9 6.1 0.00 1.14 1.14 71 1003.8
20260505032556 70 181 0.9 6.1 0.00 1.14 1.14 71 1003.8
20260505032500 70 250 0.0 4.3 0.00 1.14 1.14 71 1003.8
20260505032356 70 175 0.9 4.3 0.00 1.14 1.14 72 1003.8
20260505032320 70 262 0.9 4.3 0.00 1.14 1.14 72 1003.8
20260505032234 70 137 0.9 4.3 0.00 1.14 1.14 72 1003.8
20260505032103 70 143 0.9 4.3 0.00 1.14 1.14 72 1003.8
20260505031956 70 255 0.0 5.2 0.00 1.14 1.14 72 1003.8
20260505031921 70 172 0.0 5.2 0.00 1.14 1.14 72 1003.8
20260505031814 70 150 0.0 5.2 0.00 1.14 1.14 72 1003.8
20260505031709 70 150 0.0 5.2 0.00 1.14 1.14 72 1003.8
20260505031613 70 196 0.0 5.2 0.00 1.14 1.14 72 1003.7
20260505031540 70 143 0.0 5.2 0.00 1.14 1.14 72 1003.7
20260505031508 70 148 0.9 5.2 0.00 1.14 1.14 72 1003.7
20260505031406 70 57 0.9 5.2 0.00 1.14 1.14 72 1003.6
20260505031310 70 165 1.7 5.2 0.00 1.14 1.14 72 1003.6
20260505031236 70 154 0.9 5.2 0.00 1.14 1.14 72 1003.7
20260505031109 70 150 0.9 4.3 0.00 1.14 1.14 72 1003.6
20260505031004 70 221 0.9 4.3 0.00 1.14 1.14 72 1003.6
20260505030928 70 224 0.0 3.5 0.00 1.14 1.14 72 1003.6
20260505030802 70 155 0.0 3.5 0.00 1.14 1.14 72 1003.7
20260505030657 70 143 0.0 3.5 0.00 1.14 1.14 72 1003.7
20260505030605 70 144 0.0 3.5 0.00 1.14 1.14 72 1003.6
20260505030500 70 94 0.9 3.5 0.00 1.14 1.14 72 1003.6
20260505030355 70 153 0.9 3.5 0.00 1.14 1.14 71 1003.7
20260505030259 70 174 0.9 3.5 0.00 1.14 1.14 71 1003.6
20260505030214 70 210 0.0 3.5 0.00 1.14 1.14 71 1003.7
20260505030150 70 243 0.0 3.5 0.00 1.14 1.14 71 1003.7
20260505030017 70 204 0.9 3.5 0.00 1.14 1.14 71 1003.6
20260505025914 70 208 0.9 3.5 0.00 1.14 1.14 71 1003.6
20260505025809 70 248 0.0 0.0 0.00 1.14 1.14 71 1003.6
20260505025713 70 174 0.0 0.0 0.00 1.14 1.14 71 1003.6
20260505025608 70 116 0.0 0.0 0.00 1.14 1.14 71 1003.6
20260505025503 70 37 0.0 0.0 0.00 1.14 1.14 70 1003.6
20260505025407 70 207 0.0 0.0 0.00 1.14 1.14 70 1003.6
20260505025304 70 134 0.0 0.0 0.00 1.14 1.14 70 1003.5
20260505025201 70 167 0.0 1.7 0.00 1.14 1.14 70 1003.6
20260505025105 70 168 0.0 1.7 0.00 1.14 1.14 70 1003.5
20260505025020 71 168 0.0 1.7 0.00 1.14 1.14 70 1003.5
20260505024903 71 204 0.0 1.7 0.00 1.14 1.14 70 1003.5
20260505024758 71 226 0.0 1.7 0.00 1.14 1.14 70 1003.5
20260505024723 71 226 0.0 1.7 0.00 1.14 1.14 70 1003.5
20260505024617 71 205 0.0 1.7 0.00 1.14 1.14 69 1003.5
20260505024520 70 122 0.0 3.5 0.00 1.14 1.14 69 1003.5
20260505024455 71 122 0.0 3.5 0.00 1.14 1.14 70 1003.5
20260505024419 71 153 0.0 3.5 0.00 1.14 1.14 70 1003.4
20260505024344 71 158 0.0 3.5 0.00 1.14 1.14 70 1003.5
20260505024157 71 175 0.0 3.5 0.00 1.14 1.14 70 1003.4
20260505024111 70 230 0.0 3.5 0.00 1.14 1.14 70 1003.4
20260505024015 70 209 0.0 3.5 0.00 1.14 1.14 70 1003.4
20260505023910 70 345 0.0 3.5 0.00 1.14 1.14 70 1003.4
20260505023805 70 304 0.0 3.5 0.00 1.14 1.14 70 1003.4
20260505023713 70 233 0.0 3.5 0.00 1.14 1.14 70 1003.3
20260505023608 70 184 0.0 3.5 0.00 1.14 1.14 70 1003.3
20260505023503 70 176 0.0 3.5 0.00 1.14 1.14 70 1003.3
20260505023427 70 255 0.0 3.5 0.00 1.14 1.14 70 1003.3
20260505023321 70 144 0.0 3.5 0.00 1.14 1.14 70 1003.3
20260505023204 70 128 0.0 3.5 0.00 1.14 1.14 70 1003.2
20260505023130 69 214 0.0 3.5 0.00 1.14 1.14 70 1003.2
20260505023059 70 233 0.0 3.5 0.00 1.14 1.14 70 1003.2
20260505023024 70 156 0.0 3.5 0.00 1.14 1.14 70 1003.2
20260505022930 70 155 0.9 3.5 0.00 1.14 1.14 70 1003.2
20260505022804 70 179 0.9 3.5 0.00 1.14 1.14 70 1003.2
20260505022659 70 162 0.0 0.0 0.00 1.14 1.14 70 1003.2
20260505022622 70 205 0.0 0.0 0.00 1.14 1.14 70 1003.2
20260505022517 70 160 0.0 0.0 0.00 1.14 1.14 70 1003.1
20260505022441 70 161 0.0 0.0 0.00 1.14 1.14 70 1003.1
20260505022255 70 155 0.0 0.0 0.00 1.14 1.14 70 1003.1
20260505022210 70 178 0.0 0.0 0.00 1.14 1.14 70 1003.1
20260505022118 70 165 0.0 0.0 0.00 1.14 1.14 70 1003.1
20260505022013 70 165 0.0 0.0 0.00 1.14 1.14 70 1003.1
20260505021907 70 165 0.0 0.0 0.00 1.14 1.14 70 1003.1
20260505021812 70 165 0.0 0.0 0.00 1.14 1.14 70 1003.0
20260505021706 70 165 0.0 0.0 0.00 1.14 1.14 70 1003.0
20260505021618 70 141 0.0 0.0 0.00 1.14 1.14 70 1002.9
20260505021601 70 141 0.0 0.0 0.00 1.14 1.14 70 1003.0
20260505021509 70 141 0.0 0.0 0.00 1.14 1.14 70 1002.9
20260505021404 70 141 0.0 0.0 0.00 1.14 1.14 69 1003.0
20260505021327 70 141 0.0 0.0 0.00 1.14 1.14 69 1002.9
20260505021202 70 141 0.0 0.0 0.00 1.14 1.14 70 1002.9
20260505021057 70 141 0.0 0.0 0.00 1.14 1.14 69 1002.9
20260505021001 70 141 0.0 0.0 0.00 1.14 1.14 69 1002.9
20260505020855 70 141 0.0 0.0 0.00 1.14 1.14 69 1002.9
20260505020759 70 141 0.0 0.0 0.00 1.14 1.14 69 1002.8
20260505020657 70 141 0.0 0.0 0.00 1.14 1.14 69 1002.8
20260505020621 70 141 0.0 0.0 0.00 1.14 1.14 69 1002.8
20260505020456 70 141 0.0 0.0 0.00 1.14 1.14 69 1002.8
20260505020412 70 141 0.0 0.0 0.00 1.14 1.14 69 1002.8
20260505020315 70 141 0.0 0.0 0.00 1.14 1.14 69 1002.8
20260505020209 70 141 0.0 0.0 0.00 1.14 1.14 69 1002.8
20260505020125 70 141 0.0 0.0 0.00 1.14 1.14 69 1002.8
20260505020033 70 141 0.0 0.0 0.00 1.14 1.14 69 1002.7
20260505015909 70 141 0.0 0.0 0.00 1.14 1.14 69 1002.7
20260505015804 70 141 0.0 0.0 0.00 1.14 1.14 68 1002.7
20260505015708 70 141 0.0 0.0 0.00 1.14 1.14 69 1002.8
20260505015603 70 141 0.0 0.0 0.00 1.14 1.14 69 1002.7
20260505015458 70 141 0.0 0.0 0.00 1.14 1.14 68 1002.7
20260505015403 71 141 0.0 0.0 0.00 1.14 1.14 68 1002.7
20260505015303 71 141 0.0 0.0 0.00 1.14 1.14 68 1002.7
20260505015156 71 141 0.0 0.0 0.00 1.14 1.14 68 1002.7
20260505015120 71 141 0.0 0.0 0.00 1.14 1.14 68 1002.7
20260505014954 71 141 0.0 0.0 0.00 1.14 1.14 68 1002.6
20260505014919 71 141 0.0 0.0 0.00 1.14 1.14 68 1002.6
20260505014813 71 141 0.0 0.0 0.00 1.14 1.14 68 1002.6
20260505014708 71 141 0.0 0.0 0.00 1.14 1.14 68 1002.6
20260505014612 71 141 0.0 0.0 0.00 1.14 1.14 67 1002.6
20260505014540 71 141 0.0 0.0 0.00 1.14 1.14 67 1002.6
20260505014512 71 141 0.0 0.0 0.00 1.14 1.14 67 1002.6
20260505014416 71 141 0.0 0.0 0.00 1.14 1.14 67 1002.6
20260505014310 71 141 0.0 0.0 0.00 1.14 1.14 67 1002.5
20260505014205 72 141 0.0 0.0 0.00 1.14 1.14 67 1002.6
20260505014100 72 141 0.0 0.0 0.00 1.14 1.14 67 1002.6
20260505014004 72 141 0.0 0.0 0.00 1.14 1.14 67 1002.5
20260505013903 72 141 0.0 0.0 0.00 1.14 1.14 66 1002.6
20260505013827 72 141 0.0 0.0 0.00 1.14 1.14 66 1002.5
20260505013701 72 141 0.0 0.0 0.00 1.14 1.14 66 1002.5
20260505013625 72 141 0.0 0.0 0.00 1.14 1.14 66 1002.5
20260505013459 72 141 0.0 0.0 0.00 1.14 1.14 66 1002.5
20260505013423 72 141 0.0 0.0 0.00 1.14 1.14 66 1002.4
20260505013257 72 141 0.0 0.0 0.00 1.14 1.14 65 1002.4
20260505013213 72 141 0.0 0.0 0.00 1.14 1.14 65 1002.4
20260505013121 72 141 0.0 0.0 0.00 1.14 1.14 65 1002.4
20260505013047 72 141 0.0 0.0 0.00 1.14 1.14 64 1002.4
20260505012958 73 141 0.0 0.0 0.00 1.14 1.14 64 1002.4
20260505012922 73 141 0.0 0.0 0.00 1.14 1.14 64 1002.4
20260505012815 73 141 0.0 0.0 0.00 1.14 1.14 64 1002.4
20260505012709 73 141 0.0 0.0 0.00 1.14 1.14 64 1002.4
20260505012613 73 141 0.0 0.0 0.00 1.14 1.14 64 1002.3
20260505012508 73 141 0.0 0.0 0.00 1.14 1.14 64 1002.3
20260505012406 73 141 0.0 0.0 0.00 1.14 1.14 63 1002.3
20260505012310 74 141 0.0 0.0 0.00 1.14 1.14 63 1002.3
20260505012205 74 141 0.0 0.0 0.00 1.14 1.14 62 1002.3
20260505012100 74 141 0.0 0.0 0.00 1.14 1.14 62 1002.3
20260505012004 74 141 0.0 0.0 0.00 1.14 1.14 62 1002.3
20260505011859 74 141 0.0 0.0 0.00 1.14 1.14 62 1002.3
20260505011754 74 141 0.0 0.0 0.00 1.14 1.14 60 1002.3
20260505011702 74 141 0.0 0.0 0.00 1.14 1.14 61 1002.3
20260505011634 74 141 0.0 0.0 0.00 1.14 1.14 61 1002.3
20260505011557 74 141 0.0 0.0 0.00 1.14 1.14 60 1002.2
20260505011521 74 141 0.0 0.0 0.00 1.14 1.14 60 1002.2
20260505011416 75 141 0.0 0.0 0.00 1.14 1.14 59 1002.2
20260505011341 75 141 0.0 0.0 0.00 1.14 1.14 59 1002.1
20260505011154 75 141 0.0 0.0 0.00 1.14 1.14 59 1002.1
20260505011109 75 141 0.0 0.0 0.00 1.14 1.14 59 1002.1
20260505011017 75 141 0.0 0.0 0.00 1.14 1.14 59 1002.1
20260505010912 75 141 0.0 0.0 0.00 1.14 1.14 59 1002.1
20260505010807 76 141 0.0 0.0 0.00 1.14 1.14 58 1002.0
20260505010731 76 141 0.0 0.0 0.00 1.14 1.14 58 1002.0
20260505010605 76 141 0.0 0.0 0.00 1.14 1.14 58 1002.0
20260505010509 76 141 0.0 0.0 0.00 1.14 1.14 58 1002.0
20260505010404 77 141 0.0 0.0 0.00 1.14 1.14 58 1002.0
20260505010303 77 141 0.0 0.0 0.00 1.14 1.14 57 1002.0
20260505010207 77 141 0.0 0.0 0.00 1.14 1.14 56 1001.9
20260505010142 77 141 0.0 0.0 0.00 1.14 1.14 55 1001.9
20260505010113 77 141 0.0 0.0 0.00 1.14 1.14 55 1002.0
20260505010003 77 141 0.0 0.0 0.00 1.14 1.14 55 1002.0
20260505005855 78 141 0.0 0.0 0.00 1.14 1.14 54 1001.9
20260505005809 78 141 0.0 0.0 0.00 1.14 1.14 55 1001.9
20260505005713 78 141 0.0 0.0 0.00 1.14 1.14 54 1001.9
20260505005628 78 141 0.0 0.0 0.00 1.14 1.14 54 1001.9
20260505005456 78 141 0.0 0.0 0.00 1.14 1.14 53 1001.9
20260505005410 79 141 0.0 0.0 0.00 1.14 1.14 53 1001.9
20260505005334 79 141 0.0 0.0 0.00 1.14 1.14 53 1001.8
20260505005208 79 141 0.0 0.0 0.00 1.14 1.14 53 1001.8
20260505005103 79 141 0.0 0.0 0.00 1.14 1.14 52 1001.8
20260505005007 80 141 0.0 0.0 0.00 1.14 1.14 51 1001.8
20260505004902 80 141 0.0 0.0 0.00 1.14 1.14 50 1001.8
20260505004801 80 141 0.0 0.0 0.00 1.14 1.14 50 1001.8
20260505004725 81 141 0.0 0.0 0.00 1.14 1.14 50 1001.8
20260505004628 81 141 0.0 0.0 0.00 1.14 1.14 50 1001.8
20260505004531 81 141 0.0 0.0 0.00 1.14 1.14 50 1001.8
20260505004404 81 141 0.0 0.0 0.00 1.14 1.14 50 1001.8
20260505004319 81 141 0.0 0.0 0.00 1.14 1.14 49 1001.8
20260505004202 81 141 0.0 0.0 0.00 1.14 1.14 49 1001.8
20260505004117 81 141 0.0 0.0 0.00 1.14 1.14 50 1001.8
20260505004020 81 141 0.0 0.0 0.00 1.14 1.14 50 1001.7
20260505003907 81 141 0.0 0.0 0.00 1.14 1.14 50 1001.8
20260505003802 81 141 0.0 0.0 0.00 1.14 1.14 50 1001.7
20260505003657 81 141 0.0 0.0 0.00 1.14 1.14 50 1001.7
20260505003621 81 141 0.0 0.0 0.00 1.14 1.14 50 1001.7
20260505003516 81 141 0.0 0.0 0.00 1.14 1.14 51 1001.7
20260505003440 81 141 0.0 0.0 0.00 1.14 1.14 50 1001.7
20260505003314 81 141 0.0 0.0 0.00 1.14 1.14 50 1001.7
20260505003209 81 141 0.0 0.0 0.00 1.14 1.14 50 1001.7
20260505003117 81 141 0.0 0.0 0.00 1.14 1.14 50 1001.6
20260505003042 80 141 0.0 0.0 0.00 1.14 1.14 50 1001.6
20260505003014 81 141 0.0 0.0 0.00 1.14 1.14 50 1001.6
20260505002918 80 141 0.0 0.0 0.00 1.14 1.14 50 1001.6
20260505002811 80 141 0.0 0.0 0.00 1.14 1.14 50 1001.6
20260505002706 80 141 0.0 0.0 0.00 1.14 1.14 50 1001.6
20260505002601 80 141 0.0 0.0 0.00 1.14 1.14 51 1001.6
20260505002509 80 141 0.0 0.0 0.00 1.14 1.14 51 1001.6
20260505002404 80 141 0.0 0.0 0.00 1.14 1.14 51 1001.6
20260505002259 80 141 0.0 0.0 0.00 1.14 1.14 51 1001.6
20260505002203 79 141 0.0 0.0 0.00 1.14 1.14 51 1001.6
20260505002118 79 141 0.0 0.0 0.00 1.14 1.14 50 1001.6
20260505002001 79 136 0.0 0.0 0.00 1.14 1.14 50 1001.6
20260505001804 79 242 0.0 0.0 0.00 1.14 1.14 50 1001.6
20260505001708 79 242 0.0 0.0 0.00 1.14 1.14 51 1001.6
20260505001603 79 242 0.0 0.0 0.00 1.14 1.14 50 1001.6
20260505001518 79 336 0.0 0.0 0.00 1.14 1.14 51 1001.6
20260505001458 79 188 0.0 0.0 0.00 1.14 1.14 51 1001.6
20260505001401 79 188 0.0 0.0 0.00 1.14 1.14 51 1001.6
20260505001257 79 188 0.0 0.0 0.00 1.14 1.14 51 1001.6
20260505001221 79 188 0.0 0.0 0.00 1.14 1.14 51 1001.6
20260505001100 79 188 0.0 0.0 0.00 1.14 1.14 50 1001.6
20260505000955 79 188 0.0 0.0 0.00 1.14 1.14 51 1001.6
20260505000919 79 120 0.0 0.0 0.00 1.14 1.14 50 1001.6
20260505000813 79 120 0.0 0.0 0.00 1.14 1.14 50 1001.7
20260505000716 79 239 0.0 0.0 0.00 1.14 1.14 50 1001.6
20260505000611 79 239 0.0 0.0 0.00 1.14 1.14 49 1001.6
20260505000507 79 135 0.0 0.0 0.00 1.14 1.14 49 1001.6
20260505000414 80 218 0.0 0.0 0.00 1.14 1.14 49 1001.6
20260505000329 80 162 0.0 2.6 0.00 1.14 1.14 49 1001.6
20260505000212 80 215 0.0 3.5 0.00 1.14 1.14 49 1001.7
20260505000151 79 215 0.0 3.5 0.00 1.14 1.14 49 1001.7
20260505000139 80 217 0.0 3.5 0.00 1.14 1.14 49 1001.7
20260505000006 80 253 0.0 3.5 0.00 1.14 1.14 49 1001.7
20260504235859 80 251 0.0 3.5 0.00 1.37 1.14 49 1001.7
20260504235823 80 250 0.0 4.3 0.00 1.37 1.14 49 1001.6
20260504235658 80 269 0.0 4.3 0.00 1.37 1.14 49 1001.7
20260504235556 80 223 0.9 4.3 0.00 1.37 1.14 49 1001.6
20260504235521 80 173 0.9 4.3 0.00 1.37 1.14 49 1001.6
20260504235416 80 276 0.0 4.3 0.00 1.37 1.14 48 1001.6
20260504235319 80 45 0.0 4.3 0.00 1.37 1.14 48 1001.6
20260504235223 80 292 0.0 4.3 0.00 1.37 1.14 48 1001.6
20260504235116 80 292 0.9 4.3 0.00 1.37 1.14 48 1001.6
20260504235011 80 250 0.9 4.3 0.00 1.37 1.14 48 1001.6
20260504234906 80 248 0.9 3.5 0.00 1.37 1.14 47 1001.6
20260504234835 80 210 1.7 6.1 0.00 1.37 1.14 47 1001.7
20260504234719 80 208 1.7 6.1 0.00 1.37 1.14 47 1001.7
20260504234632 81 221 0.9 6.1 0.00 1.37 1.14 47 1001.7
20260504234516 80 274 0.0 6.1 0.00 1.37 1.14 47 1001.6
20260504234505 81 277 0.9 6.1 0.00 1.37 1.14 47 1001.6
20260504234409 81 328 1.7 6.1 0.00 1.37 1.14 46 1001.7
20260504234304 81 25 1.7 6.1 0.00 1.37 1.14 47 1001.7
20260504234228 81 256 1.7 6.1 0.00 1.37 1.14 46 1001.6
20260504234103 81 268 1.7 6.1 0.00 1.37 1.14 46 1001.7
20260504234002 81 276 1.7 6.1 0.00 1.37 1.14 46 1001.7
20260504233905 81 155 1.7 5.2 0.00 1.37 1.14 46 1001.7
20260504233757 81 278 0.9 5.2 0.00 1.37 1.14 45 1001.7
20260504233721 81 162 0.9 5.2 0.00 1.37 1.14 45 1001.7
20260504233616 81 243 0.9 5.2 0.00 1.37 1.14 45 1001.6
20260504233541 82 98 1.7 5.2 0.00 1.37 1.14 45 1001.7
20260504233435 82 292 2.6 5.2 0.00 1.37 1.14 45 1001.7
20260504233318 82 140 1.7 7.0 0.00 1.37 1.14 45 1001.7
20260504233156 82 210 0.9 7.0 0.00 1.37 1.14 45 1001.7
20260504233124 81 232 0.0 7.0 0.00 1.37 1.14 45 1001.7
20260504233111 82 212 0.0 7.0 0.00 1.37 1.14 45 1001.7
20260504233018 82 277 1.7 7.0 0.00 1.37 1.14 45 1001.7
20260504232912 82 282 1.7 7.0 0.00 1.37 1.14 44 1001.7
20260504232806 82 187 1.7 7.0 0.00 1.37 1.14 44 1001.7
20260504232730 82 292 1.7 7.8 0.00 1.37 1.14 44 1001.7
20260504232604 82 285 2.6 7.8 0.00 1.37 1.14 44 1001.7
20260504232532 82 270 2.6 7.8 0.00 1.37 1.14 44 1001.7
20260504232416 82 267 1.7 7.8 0.00 1.37 1.14 44 1001.7
20260504232329 83 254 1.7 7.8 0.00 1.37 1.14 44 1001.8
20260504232203 83 137 1.7 7.8 0.00 1.37 1.14 44 1001.7
20260504232127 83 278 1.7 7.8 0.00 1.37 1.14 43 1001.7
20260504232030 83 243 2.6 7.8 0.00 1.37 1.14 43 1001.7
20260504231904 83 250 2.6 7.8 0.00 1.37 1.14 43 1001.7
20260504231759 83 276 1.7 6.1 0.00 1.37 1.14 43 1001.7
20260504231707 84 220 1.7 6.1 0.00 1.37 1.14 42 1001.7
20260504231602 84 210 1.7 6.1 0.00 1.37 1.14 42 1001.7
20260504231509 83 143 1.7 6.1 0.00 1.37 1.14 42 1001.6
20260504231457 84 153 1.7 6.1 0.00 1.37 1.14 42 1001.6
20260504231421 84 84 1.7 6.1 0.00 1.37 1.14 42 1001.7
20260504231255 84 255 1.7 6.1 0.00 1.37 1.14 42 1001.7
20260504231159 84 210 2.6 6.1 0.00 1.37 1.14 42 1001.7
20260504231055 84 210 2.6 6.1 0.00 1.37 1.14 41 1001.7
20260504231018 84 329 1.7 5.2 0.00 1.37 1.14 42 1001.7
20260504230917 84 342 1.7 5.2 0.00 1.37 1.14 42 1001.7
20260504230820 84 99 1.7 5.2 0.00 1.37 1.14 42 1001.8
20260504230654 84 183 0.9 5.2 0.00 1.37 1.14 42 1001.8
20260504230609 84 200 0.0 6.1 0.00 1.37 1.14 42 1001.8
20260504230513 84 229 0.0 7.0 0.00 1.37 1.14 43 1001.8
20260504230408 84 250 0.9 7.0 0.00 1.37 1.14 43 1001.8
20260504230303 84 302 1.7 7.0 0.00 1.37 1.14 42 1001.8
20260504230231 84 250 0.9 7.0 0.00 1.37 1.14 42 1001.8
20260504230126 83 141 0.9 7.0 0.00 1.37 1.14 42 1001.8
20260504230045 83 293 0.0 7.0 0.00 1.37 1.14 43 1001.8
20260504230005 83 155 0.0 8.7 0.00 1.37 1.14 42 1001.9
20260504225857 83 131 1.7 8.7 0.00 1.89 1.14 42 1001.8
20260504225821 83 352 1.7 8.7 0.00 1.89 1.14 43 1001.8
20260504225655 83 242 1.7 8.7 0.00 1.89 1.14 42 1001.8
20260504225559 83 288 2.6 8.7 0.00 1.89 1.14 43 1001.8
20260504225458 83 273 1.7 8.7 0.00 1.89 1.14 43 1001.7
20260504225422 83 257 2.6 8.7 0.00 1.89 1.14 43 1001.7
20260504225257 83 167 2.6 8.7 0.00 1.89 1.14 43 1001.8
20260504225211 83 296 2.6 8.7 0.00 1.89 1.14 43 1001.7
20260504225115 83 212 3.5 8.7 0.00 1.89 1.14 42 1001.7
20260504225010 83 212 2.6 7.0 0.00 1.89 1.14 43 1001.7
20260504224905 83 250 1.7 7.0 0.00 1.89 1.14 43 1001.7
20260504224813 83 238 1.7 7.0 0.00 1.89 1.14 43 1001.7
20260504224708 83 202 2.6 7.0 0.00 1.89 1.14 44 1001.7
20260504224603 83 252 2.6 7.0 0.00 1.89 1.14 44 1001.7
20260504224509 82 304 1.7 6.1 0.00 1.89 1.14 43 1001.7
20260504224457 83 306 2.6 6.1 0.00 1.89 1.14 43 1001.7
20260504224401 83 237 1.7 6.1 0.00 1.89 1.14 44 1001.7
20260504224256 82 142 1.7 6.1 0.00 1.89 1.14 44 1001.7
20260504224220 82 232 0.9 6.1 0.00 1.89 1.14 44 1001.7
20260504224058 82 111 1.7 6.1 0.00 1.89 1.14 44 1001.7
20260504224022 82 103 1.7 6.1 0.00 1.89 1.14 44 1001.7
20260504223917 82 94 2.6 6.1 0.00 1.89 1.14 44 1001.7
20260504223842 82 129 2.6 6.1 0.00 1.89 1.14 43 1001.8
20260504223656 82 150 2.6 6.1 0.00 1.89 1.14 44 1001.7
20260504223621 82 243 2.6 6.1 0.00 1.89 1.14 46 1001.8
20260504223515 82 238 2.6 6.1 0.00 1.89 1.14 45 1001.8
20260504223439 82 329 2.6 6.1 0.00 1.89 1.14 45 1001.8
20260504223256 82 278 2.6 6.1 0.00 1.89 1.14 44 1001.8
20260504223211 82 338 2.6 6.1 0.00 1.89 1.14 45 1001.8
20260504223114 82 258 2.6 6.1 0.00 1.89 1.14 44 1001.8
20260504223057 81 267 2.6 6.1 0.00 1.89 1.14 44 1001.8
20260504223011 81 222 3.5 7.0 0.00 1.89 1.14 45 1001.8
20260504222904 82 256 2.6 7.0 0.00 1.89 1.14 44 1001.7
20260504222759 81 261 0.9 7.0 0.00 1.89 1.14 45 1001.8
20260504222703 81 274 0.9 7.0 0.00 1.89 1.14 45 1001.8
20260504222602 81 261 1.7 7.0 0.00 1.89 1.14 46 1001.8
20260504222457 81 294 1.7 7.0 0.00 1.89 1.14 45 1001.8
20260504222401 81 280 1.7 7.0 0.00 1.89 1.14 45 1001.8
20260504222326 81 262 1.7 7.0 0.00 1.89 1.14 45 1001.8
20260504222159 81 275 2.6 7.0 0.00 1.89 1.14 45 1001.8
20260504222054 81 318 3.5 7.0 0.00 1.89 1.14 44 1001.8
20260504222018 81 268 3.5 7.0 0.00 1.89 1.14 45 1001.8
20260504221857 81 230 2.6 6.1 0.00 1.89 1.14 45 1001.8
20260504221821 81 236 2.6 6.1 0.00 1.89 1.14 45 1001.8
20260504221715 81 281 2.6 7.0 0.00 1.89 1.14 45 1001.8
20260504221639 81 323 2.6 7.0 0.00 1.89 1.14 45 1001.9
20260504221600 80 245 1.7 7.0 0.00 1.89 1.14 45 1001.9
20260504221511 81 294 1.7 7.0 0.00 1.89 1.14 45 1001.9
20260504221406 81 294 1.7 7.0 0.00 1.89 1.14 46 1001.9
20260504221331 81 297 0.9 7.0 0.00 1.89 1.14 45 1001.9
20260504221222 81 124 0.9 7.8 0.00 1.89 1.14 45 1001.9
20260504221109 81 286 1.7 7.8 0.00 1.89 1.14 45 1001.9
20260504221033 81 262 3.5 7.8 0.00 1.89 1.14 45 1001.9
20260504220906 80 219 2.6 7.8 0.00 1.89 1.14 45 1001.9
20260504220801 80 163 3.5 7.8 0.00 1.89 1.14 45 1002.0
20260504220657 80 295 3.5 7.8 0.00 1.89 1.14 45 1002.0
20260504220621 80 222 3.5 7.8 0.00 1.89 1.14 45 1002.0
20260504220455 80 239 3.5 7.8 0.00 1.89 1.14 45 1001.9
20260504220418 80 276 3.5 7.8 0.00 1.89 1.14 45 1001.9
20260504220321 80 307 2.6 10.4 0.00 1.89 1.14 45 1001.9
20260504220158 80 265 1.7 10.4 0.00 1.89 1.14 45 1001.9
20260504220134 80 284 1.7 10.4 0.00 1.89 1.14 45 1001.9
20260504220021 80 263 1.7 10.4 0.00 1.89 1.14 45 1001.9
20260504215934 80 323 1.7 10.4 0.00 1.90 1.14 45 1002.0
20260504215817 80 148 0.9 10.4 0.00 1.90 1.14 45 1002.0
20260504215711 80 250 2.6 10.4 0.00 1.90 1.14 45 1002.0
20260504215606 80 259 3.5 10.4 0.00 1.90 1.14 44 1002.1
20260504215508 80 302 4.3 10.4 0.00 1.90 1.14 44 1002.1
20260504215406 80 300 3.5 7.0 0.00 1.90 1.14 44 1002.1
20260504215311 81 214 2.6 7.0 0.00 1.90 1.14 44 1002.1
20260504215205 81 262 2.6 7.0 0.00 1.90 1.14 43 1002.1
20260504215101 81 299 4.3 7.0 0.00 1.90 1.14 43 1002.1
20260504215005 81 296 3.5 7.0 0.00 1.90 1.14 43 1002.2
20260504214859 81 286 2.6 7.0 0.00 1.90 1.14 44 1002.2
20260504214823 81 291 1.7 7.0 0.00 1.90 1.14 45 1002.1
20260504214700 81 51 0.0 7.0 0.00 1.90 1.14 45 1002.2
20260504214624 81 324 0.9 7.8 0.00 1.90 1.14 44 1002.1
20260504214542 80 15 0.9 7.8 0.00 1.90 1.14 44 1002.1
20260504214459 81 338 2.6 7.8 0.00 1.90 1.14 44 1002.2
20260504214422 81 266 2.6 8.7 0.00 1.90 1.14 43 1002.2
20260504214257 81 286 2.6 8.7 0.00 1.90 1.14 44 1002.2
20260504214212 81 246 2.6 8.7 0.00 1.90 1.14 43 1002.2
20260504214115 81 256 4.3 8.7 0.00 1.90 1.14 43 1002.2
20260504214030 81 283 4.3 8.7 0.00 1.90 1.14 43 1002.2
20260504213917 81 295 3.5 8.7 0.00 1.90 1.14 42 1002.2
20260504213832 81 271 3.5 8.7 0.00 1.90 1.14 42 1002.1
20260504213714 81 240 4.3 8.7 0.00 1.90 1.14 42 1002.1
20260504213609 81 254 3.5 8.7 0.00 1.90 1.14 43 1002.1
20260504213504 81 257 1.7 9.6 0.00 1.90 1.14 44 1002.1
20260504213408 81 6 2.6 9.6 0.00 1.90 1.14 43 1002.1
20260504213303 81 160 2.6 9.6 0.00 1.90 1.14 43 1002.1
20260504213202 81 296 2.6 9.6 0.00 1.90 1.14 43 1002.1
20260504213126 81 198 1.7 9.6 0.00 1.90 1.14 42 1002.2
20260504213032 81 307 0.9 9.6 0.00 1.90 1.14 44 1002.2
20260504212904 81 264 3.5 9.6 0.01 1.90 1.14 42 1002.2
20260504212759 81 176 4.3 9.6 0.04 1.90 1.14 42 1002.2
20260504212703 81 250 3.5 9.6 0.04 1.90 1.14 42 1002.3
20260504212558 81 293 2.6 9.6 0.04 1.90 1.14 43 1002.3
20260504212522 81 156 2.6 9.6 0.04 1.90 1.14 43 1002.2
20260504212400 81 300 2.6 9.6 0.04 1.90 1.14 43 1002.2
20260504212255 81 249 2.6 9.6 0.04 1.90 1.14 42 1002.3
20260504212219 82 146 2.6 9.6 0.04 1.90 1.14 42 1002.2
20260504212122 82 271 3.5 9.6 0.04 1.90 1.14 43 1002.2
20260504211957 82 261 1.7 7.8 0.04 1.90 1.14 43 1002.2
20260504211912 82 285 0.9 7.8 0.04 1.90 1.14 41 1002.2
20260504211816 82 203 1.7 7.8 0.04 1.90 1.14 42 1002.2
20260504211732 82 152 1.7 7.8 0.04 1.90 1.14 41 1002.2
20260504211620 82 286 0.9 7.8 0.04 1.90 1.14 41 1002.2
20260504211555 82 200 0.9 7.8 0.04 1.90 1.14 41 1002.2
20260504211454 83 339 3.5 7.8 0.04 1.90 1.14 41 1002.2
20260504211409 83 214 4.3 7.8 0.04 1.90 1.14 40 1002.2
20260504211333 83 241 4.3 7.8 0.04 1.90 1.14 40 1002.1
20260504211207 83 266 4.3 7.8 0.04 1.90 1.14 40 1002.2
20260504211111 83 255 3.5 7.8 0.04 1.90 1.14 41 1002.2
20260504211005 83 226 1.7 7.0 0.04 1.90 1.14 42 1002.2
20260504210929 83 157 0.9 7.0 0.04 1.90 1.14 42 1002.2
20260504210807 83 115 0.9 7.0 0.04 1.90 1.14 42 1002.2
20260504210702 83 269 1.7 10.4 0.04 1.90 1.14 41 1002.2
20260504210606 83 148 3.5 10.4 0.04 1.90 1.14 42 1002.3
20260504210522 83 259 2.6 10.4 0.04 1.90 1.14 41 1002.2
20260504210425 83 282 2.6 10.4 0.05 1.90 1.14 41 1002.3
20260504210259 83 138 0.9 10.4 0.16 1.90 1.14 40 1002.2
20260504210222 83 83 0.9 10.4 0.16 1.90 1.14 41 1002.3
20260504210158 83 267 0.9 10.4 0.16 1.90 1.14 41 1002.3
20260504210046 82 233 2.6 10.4 0.16 1.90 1.14 41 1002.3
20260504205959 83 113 3.5 10.4 0.16 1.90 1.14 40 1002.3
20260504205922 83 100 4.3 10.4 0.16 2.15 1.14 40 1002.3
20260504205815 83 278 3.5 9.6 0.16 2.15 1.14 40 1002.3
20260504205710 83 37 4.3 9.6 0.16 2.15 1.14 40 1002.3
20260504205634 83 288 4.3 9.6 0.16 2.15 1.14 39 1002.3
20260504205508 83 291 3.5 9.6 0.16 2.15 1.14 39 1002.3
20260504205403 83 257 1.7 9.6 0.16 2.15 1.14 40 1002.3
20260504205312 83 259 1.7 9.6 0.16 2.15 1.14 40 1002.3
20260504205206 84 293 2.6 9.6 0.16 2.15 1.14 40 1002.3
20260504205100 84 256 2.6 9.6 0.16 2.15 1.14 40 1002.4
20260504205004 84 313 1.7 7.0 0.16 2.15 1.14 40 1002.4
20260504204859 84 146 2.6 7.8 0.16 2.15 1.14 39 1002.4
20260504204823 84 145 3.5 7.8 0.16 2.15 1.14 39 1002.4
20260504204657 84 217 2.6 7.8 0.16 2.15 1.14 38 1002.5
20260504204609 84 204 1.7 7.8 0.16 2.15 1.14 39 1002.5
20260504204556 84 271 1.7 7.8 0.16 2.15 1.14 39 1002.5
20260504204500 84 274 0.9 7.8 0.16 2.15 1.14 40 1002.4
20260504204415 84 300 1.7 7.8 0.16 2.15 1.14 40 1002.4
20260504204339 84 236 2.6 7.8 0.16 2.15 1.14 39 1002.4
20260504204242 84 224 3.5 7.8 0.16 2.15 1.14 39 1002.4
20260504204115 84 221 2.6 7.8 0.16 2.15 1.14 39 1002.4
20260504204017 84 158 2.6 8.7 0.16 2.15 1.14 40 1002.4
20260504203912 84 259 2.6 8.7 0.16 2.15 1.14 40 1002.4
20260504203807 84 251 1.7 8.7 0.16 2.15 1.14 40 1002.4
20260504203715 84 248 3.5 8.7 0.16 2.15 1.14 40 1002.4
20260504203609 84 262 3.5 8.7 0.16 2.15 1.14 40 1002.4
20260504203513 84 248 3.5 8.7 0.16 2.15 1.14 40 1002.5
20260504203427 84 276 3.5 8.7 0.16 2.15 1.14 40 1002.4
20260504203308 84 288 3.5 8.7 0.18 2.15 1.14 40 1002.4
20260504203203 84 247 2.6 8.7 0.18 2.15 1.14 40 1002.4
20260504203127 84 275 1.7 7.8 0.18 2.15 1.14 40 1002.5
20260504203018 84 313 0.9 7.8 0.18 2.15 1.14 41 1002.4
20260504203002 84 242 1.7 8.7 0.18 2.15 1.14 40 1002.4
20260504202909 84 213 2.6 8.7 0.14 2.14 1.13 39 1002.4
20260504202804 84 195 3.5 8.7 0.14 2.14 1.13 40 1002.5
20260504202659 84 203 2.6 8.7 0.14 2.14 1.13 40 1002.5
20260504202603 84 129 2.6 8.7 0.14 2.14 1.13 40 1002.4
20260504202457 84 333 3.5 8.7 0.14 2.14 1.13 39 1002.6
20260504202356 84 235 2.6 8.7 0.14 2.14 1.13 40 1002.6
20260504202320 84 119 2.6 8.7 0.14 2.14 1.13 39 1002.5
20260504202155 84 220 2.6 8.7 0.14 2.14 1.13 40 1002.6
20260504202054 84 223 2.6 7.0 0.14 2.14 1.13 40 1002.6
20260504202018 84 107 2.6 7.0 0.14 2.14 1.13 41 1002.6
20260504201912 84 273 2.6 7.0 0.14 2.14 1.13 40 1002.6
20260504201807 84 176 3.5 7.8 0.14 2.14 1.13 39 1002.7
20260504201711 84 309 3.5 7.8 0.14 2.14 1.13 39 1002.6
20260504201642 83 270 2.6 7.8 0.14 2.14 1.13 39 1002.6
20260504201605 84 259 2.6 7.8 0.14 2.14 1.13 39 1002.6
20260504201529 84 271 2.6 7.8 0.14 2.14 1.13 40 1002.6
20260504201407 84 98 3.5 7.8 0.14 2.14 1.13 40 1002.6
20260504201302 84 281 3.5 7.8 0.14 2.14 1.13 39 1002.7
20260504201205 84 242 2.6 7.8 0.14 2.14 1.13 39 1002.6
20260504201101 84 35 3.5 7.8 0.14 2.14 1.13 40 1002.6
20260504200956 84 305 3.5 7.8 0.14 2.14 1.13 39 1002.7
20260504200859 84 285 2.6 7.8 0.14 2.14 1.13 39 1002.7
20260504200754 84 329 1.7 8.7 0.14 2.14 1.13 40 1002.7
20260504200722 84 326 2.6 8.7 0.14 2.14 1.13 40 1002.6
20260504200557 84 247 3.5 8.7 0.14 2.14 1.13 40 1002.6
20260504200511 83 189 3.5 8.7 0.14 2.14 1.13 41 1002.6
20260504200415 83 323 3.5 8.7 0.09 2.14 1.13 41 1002.7
20260504200330 83 281 3.5 8.7 0.02 2.13 1.12 41 1002.7
20260504200233 84 241 3.5 8.7 0.02 2.13 1.12 41 1002.6
20260504200129 84 310 4.3 8.7 0.02 2.13 1.12 40 1002.6
20260504200056 83 219 4.3 9.6 0.02 2.13 1.12 41 1002.7
20260504200008 84 250 4.3 9.6 0.02 2.13 1.12 40 1002.7
20260504195905 84 254 2.6 9.6 0.02 2.14 1.12 40 1002.7
20260504195809 84 154 2.6 9.6 0.02 2.14 1.12 41 1002.7
20260504195704 84 270 3.5 9.6 0.02 2.14 1.12 40 1002.6
20260504195559 84 225 2.6 9.6 0.02 2.14 1.12 40 1002.7
20260504195524 83 243 2.6 9.6 0.02 2.14 1.12 40 1002.7
20260504195357 83 314 3.5 9.6 0.02 2.14 1.12 39 1002.7
20260504195321 83 270 4.3 9.6 0.02 2.14 1.12 40 1002.7
20260504195219 83 145 3.5 9.6 0.02 2.14 1.12 41 1002.7
20260504195102 83 238 1.7 8.7 0.02 2.14 1.12 41 1002.7
20260504194956 83 311 1.7 9.6 0.02 2.14 1.12 39 1002.6
20260504194920 83 132 2.6 9.6 0.02 2.14 1.12 39 1002.7
20260504194756 83 134 3.5 9.6 0.02 2.14 1.12 40 1002.7
20260504194709 83 160 4.3 9.6 0.02 2.14 1.12 40 1002.7
20260504194614 82 209 4.3 9.6 0.02 2.14 1.12 40 1002.8
20260504194603 83 280 4.3 9.6 0.02 2.14 1.12 40 1002.8
20260504194511 83 160 3.5 9.6 0.02 2.14 1.12 40 1002.8
20260504194405 83 338 3.5 9.6 0.02 2.14 1.12 40 1002.8
20260504194259 83 272 5.2 9.6 0.02 2.14 1.12 39 1002.8
20260504194203 83 228 4.3 9.6 0.02 2.14 1.12 39 1002.7
20260504194058 83 279 3.5 8.7 0.02 2.14 1.12 42 1002.7
20260504194023 83 258 2.6 10.4 0.02 2.14 1.12 43 1002.7
20260504193857 83 188 2.6 10.4 0.02 2.14 1.12 41 1002.7
20260504193756 82 234 4.3 10.4 0.02 2.14 1.12 40 1002.7
20260504193720 82 256 4.3 10.4 0.02 2.14 1.12 41 1002.7
20260504193554 82 330 4.3 10.4 0.02 2.14 1.12 41 1002.7
20260504193518 82 287 5.2 10.4 0.02 2.14 1.12 40 1002.7
20260504193413 83 281 4.3 10.4 0.02 2.14 1.12 41 1002.7
20260504193308 83 235 4.3 10.4 0.00 2.14 1.12 41 1002.7
20260504193212 83 322 3.5 10.4 0.00 2.14 1.12 41 1002.7
20260504193111 83 277 3.5 10.4 0.00 2.14 1.12 41 1002.7
20260504193022 82 274 3.5 10.4 0.00 2.14 1.12 39 1002.7
20260504193008 83 294 3.5 10.4 0.00 2.14 1.12 39 1002.7
20260504192911 83 173 2.6 10.4 0.00 2.14 1.12 40 1002.7
20260504192806 83 163 3.5 11.3 0.00 2.14 1.12 39 1002.7
20260504192730 83 74 6.1 11.3 0.00 2.14 1.12 38 1002.8
20260504192604 84 293 4.3 11.3 0.00 2.14 1.12 40 1002.7
20260504192459 84 266 3.5 11.3 0.00 2.14 1.12 40 1002.8
20260504192407 84 231 3.5 11.3 0.00 2.14 1.12 40 1002.8
20260504192304 84 268 4.3 11.3 0.00 2.14 1.12 40 1002.7
20260504192157 84 184 3.5 11.3 0.00 2.14 1.12 40 1002.8
20260504192100 84 136 3.5 11.3 0.00 2.14 1.12 40 1002.7
20260504191955 84 158 3.5 11.3 0.00 2.14 1.12 40 1002.8
20260504191919 84 324 2.6 8.7 0.00 2.14 1.12 41 1002.7
20260504191814 84 19 3.5 8.7 0.00 2.14 1.12 41 1002.8
20260504191718 84 202 2.6 8.7 0.00 2.14 1.12 41 1002.7
20260504191556 83 193 2.6 8.7 0.00 2.14 1.12 41 1002.7
20260504191538 83 351 3.5 8.7 0.00 2.14 1.12 40 1002.7
20260504191511 84 162 4.3 8.7 0.00 2.14 1.12 40 1002.8
20260504191414 84 285 2.6 8.7 0.00 2.14 1.12 40 1002.8
20260504191309 84 219 0.0 7.8 0.00 2.14 1.12 42 1002.8
20260504191204 83 275 0.9 7.8 0.00 2.14 1.12 41 1002.8
20260504191108 83 252 2.6 7.8 0.00 2.14 1.12 41 1002.8
20260504191007 83 292 2.6 7.8 0.00 2.14 1.12 41 1002.7
20260504190931 83 323 2.6 7.8 0.00 2.14 1.12 41 1002.8
20260504190805 83 186 3.5 7.8 0.00 2.14 1.12 40 1002.9
20260504190659 83 143 3.5 7.8 0.00 2.14 1.12 40 1002.9
20260504190603 83 122 1.7 7.8 0.00 2.14 1.12 41 1002.9
20260504190458 83 217 0.0 7.8 0.00 2.14 1.12 41 1002.9
20260504190422 83 295 0.0 7.8 0.00 2.14 1.12 41 1002.9
20260504190301 83 295 0.0 7.8 0.00 2.14 1.12 42 1002.9
20260504190156 83 306 1.7 7.8 0.00 2.14 1.12 40 1002.9
20260504190131 83 231 1.7 7.8 0.00 2.14 1.12 40 1002.9
20260504190044 82 145 2.6 7.8 0.00 2.14 1.12 41 1002.9
20260504190011 83 269 2.6 7.8 0.00 2.14 1.12 41 1002.9
20260504185914 83 158 1.7 7.0 0.00 2.14 1.12 42 1002.9
20260504185808 83 294 2.6 7.0 0.00 2.14 1.12 42 1002.9
20260504185703 83 199 2.6 7.0 0.00 2.14 1.12 41 1002.9
20260504185611 83 218 3.5 7.0 0.00 2.14 1.12 41 1003.0
20260504185506 83 223 2.6 7.0 0.00 2.14 1.12 41 1002.9
20260504185400 83 231 1.7 6.1 0.00 2.14 1.12 43 1003.0
20260504185255 82 136 2.6 7.0 0.00 2.14 1.12 41 1002.9
20260504185159 82 208 3.5 7.0 0.00 2.14 1.12 41 1002.8
20260504185055 82 226 2.6 7.0 0.00 2.14 1.12 41 1003.0
20260504185019 82 163 2.6 7.0 0.00 2.14 1.12 41 1003.0
20260504184858 82 273 4.3 7.0 0.00 2.14 1.12 41 1002.9
20260504184823 82 238 3.5 7.0 0.00 2.14 1.12 41 1003.0
20260504184716 82 174 2.6 7.0 0.00 2.14 1.12 42 1003.0
20260504184619 82 227 2.6 7.0 0.00 2.14 1.12 42 1002.9
20260504184616 82 229 1.7 7.0 0.00 2.14 1.12 42 1002.9
20260504184513 82 281 2.6 7.0 0.00 2.14 1.12 42 1003.0
20260504184408 82 247 2.6 7.0 0.00 2.14 1.12 41 1002.9
20260504184303 82 148 2.6 9.6 0.00 2.14 1.12 40 1002.9
20260504184211 82 250 2.6 9.6 0.00 2.14 1.12 40 1003.0
20260504184106 82 197 1.7 9.6 0.00 2.14 1.12 41 1003.0
20260504184011 82 54 0.9 9.6 0.00 2.14 1.12 42 1003.0
20260504183925 82 139 1.7 9.6 0.00 2.14 1.12 42 1003.0
20260504183758 81 226 2.6 9.6 0.00 2.14 1.12 42 1003.0
20260504183722 81 140 3.5 9.6 0.00 2.14 1.12 42 1003.0
20260504183556 81 141 3.5 9.6 0.00 2.14 1.12 41 1003.0
20260504183500 81 185 3.5 9.6 0.00 2.14 1.12 41 1003.1
20260504183359 81 250 3.5 9.6 0.00 2.14 1.12 42 1003.0
20260504183254 81 301 2.6 9.6 0.00 2.14 1.12 42 1003.0
20260504183157 81 229 2.6 9.6 0.00 2.14 1.12 44 1003.1
20260504183125 80 255 2.6 9.6 0.00 2.14 1.12 42 1003.0
20260504183113 81 274 3.5 9.6 0.00 2.14 1.12 42 1003.1
20260504183018 81 212 3.5 9.6 0.00 2.14 1.12 42 1003.1
20260504182931 80 236 4.3 9.6 0.00 2.14 1.12 42 1003.2
20260504182814 80 246 4.3 9.6 0.00 2.14 1.12 42 1003.1
20260504182713 80 194 4.3 9.6 0.00 2.14 1.12 42 1003.1
20260504182608 81 195 5.2 9.6 0.00 2.14 1.12 41 1003.1
20260504182511 81 223 4.3 9.6 0.00 2.14 1.12 41 1003.1
20260504182426 81 242 2.6 9.6 0.00 2.14 1.12 42 1003.2
20260504182309 81 239 4.3 9.6 0.00 2.14 1.12 41 1003.2
20260504182204 81 304 4.3 9.6 0.00 2.14 1.12 42 1003.2
20260504182059 81 230 3.5 9.6 0.00 2.14 1.12 41 1003.1
20260504182007 81 248 2.6 9.6 0.00 2.14 1.12 41 1003.2
20260504181901 81 121 3.5 9.6 0.00 2.14 1.12 40 1003.2
20260504181804 81 208 5.2 9.6 0.00 2.14 1.12 41 1003.2
20260504181700 81 263 3.5 9.6 0.00 2.14 1.12 42 1003.2
20260504181612 80 259 2.6 8.7 0.00 2.14 1.12 43 1003.1
20260504181555 81 243 3.5 8.7 0.00 2.14 1.12 42 1003.1
20260504181459 81 336 2.6 8.7 0.00 2.14 1.12 42 1003.1
20260504181354 81 304 2.6 8.7 0.00 2.14 1.12 41 1003.1
20260504181318 81 265 1.7 8.7 0.00 2.14 1.12 41 1003.2
20260504181156 81 333 0.9 8.7 0.00 2.14 1.12 43 1003.2
20260504181111 81 229 2.6 8.7 0.00 2.14 1.12 43 1003.2
20260504181015 80 167 4.3 8.7 0.00 2.14 1.12 42 1003.3
20260504180908 80 217 3.5 7.0 0.00 2.14 1.12 42 1003.3
20260504180811 80 298 2.6 7.0 0.00 2.14 1.12 42 1003.3
20260504180725 80 263 2.6 7.0 0.00 2.14 1.12 41 1003.3
20260504180609 80 255 2.6 7.0 0.00 2.14 1.12 42 1003.3
20260504180508 80 301 3.5 7.0 0.00 2.14 1.12 42 1003.4
20260504180402 80 253 3.5 7.0 0.00 2.14 1.12 41 1003.4
20260504180306 80 163 2.6 7.0 0.00 2.14 1.12 43 1003.4
20260504180201 80 261 2.6 7.0 0.00 2.14 1.12 43 1003.5
20260504180137 80 207 3.5 7.0 0.00 2.14 1.12 43 1003.5
20260504180045 79 191 3.5 7.0 0.00 2.14 1.12 42 1003.3
20260504175956 80 245 4.3 7.0 0.00 2.14 1.12 42 1003.5
20260504175908 80 249 3.5 7.0 0.00 2.14 1.12 42 1003.4
20260504175816 80 268 3.5 7.0 0.00 2.14 1.12 42 1003.3
20260504175711 80 179 2.6 7.0 0.00 2.14 1.12 42 1003.3
20260504175635 80 221 2.6 7.0 0.00 2.14 1.12 43 1003.4
20260504175509 80 241 1.7 7.8 0.00 2.14 1.12 42 1003.4
20260504175404 80 118 2.6 8.7 0.00 2.14 1.12 43 1003.4
20260504175328 79 288 2.6 8.7 0.00 2.14 1.12 43 1003.5
20260504175222 79 298 2.6 10.4 0.00 2.14 1.12 43 1003.4
20260504175056 79 203 1.7 10.4 0.00 2.14 1.12 43 1003.4
20260504174955 79 218 1.7 10.4 0.00 2.14 1.12 42 1003.4
20260504174920 79 318 2.6 10.4 0.00 2.14 1.12 43 1003.4
20260504174814 79 288 3.5 10.4 0.00 2.14 1.12 43 1003.5
20260504174717 79 186 4.3 10.4 0.00 2.14 1.12 43 1003.5
20260504174612 79 296 5.2 10.4 0.00 2.14 1.12 43 1003.6
20260504174522 79 251 5.2 10.4 0.00 2.14 1.12 43 1003.5
20260504174507 79 284 5.2 10.4 0.00 2.14 1.12 43 1003.5
20260504174411 79 266 2.6 10.4 0.00 2.14 1.12 44 1003.5
20260504174311 79 266 0.0 8.7 0.00 2.14 1.12 44 1003.4
20260504174205 79 62 1.7 8.7 0.00 2.14 1.12 44 1003.5
20260504174109 79 200 4.3 8.7 0.00 2.14 1.12 44 1003.5
20260504174004 79 250 5.2 8.7 0.00 2.14 1.12 43 1003.5
20260504173859 79 273 4.3 8.7 0.00 2.14 1.12 44 1003.6
20260504173803 79 300 3.5 8.7 0.00 2.14 1.12 44 1003.6
20260504173658 79 161 2.6 8.7 0.00 2.14 1.12 43 1003.5
20260504173626 79 198 3.5 8.7 0.00 2.14 1.12 43 1003.6
20260504173500 79 245 4.3 8.7 0.00 2.14 1.12 43 1003.6
20260504173355 79 211 3.5 9.6 0.00 2.14 1.12 43 1003.6
20260504173258 79 172 1.7 9.6 0.00 2.14 1.12 43 1003.6
20260504173153 79 288 1.7 9.6 0.00 2.14 1.12 43 1003.6
20260504173117 79 143 0.9 9.6 0.00 2.14 1.12 43 1003.6
20260504173055 79 328 0.0 9.6 0.00 2.14 1.12 43 1003.6
20260504172954 79 247 0.9 9.6 0.00 2.14 1.12 43 1003.6
20260504172912 79 231 2.6 9.6 0.00 2.14 1.12 43 1003.6
20260504172816 79 158 3.5 9.6 0.00 2.14 1.12 43 1003.6
20260504172711 79 278 3.5 9.6 0.00 2.14 1.12 43 1003.6
20260504172635 79 274 4.3 9.6 0.00 2.14 1.12 43 1003.6
20260504172509 79 244 4.3 9.6 0.00 2.14 1.12 42 1003.7
20260504172433 80 307 1.7 8.7 0.00 2.14 1.12 43 1003.6
20260504172307 79 94 0.9 8.7 0.00 2.14 1.12 44 1003.6
20260504172209 79 256 1.7 8.7 0.00 2.14 1.12 44 1003.5
20260504172108 79 273 3.5 8.7 0.00 2.14 1.12 43 1003.6
20260504172003 79 260 4.3 8.7 0.00 2.14 1.12 43 1003.5
20260504171907 79 315 1.7 8.7 0.00 2.14 1.12 44 1003.5
20260504171802 79 266 0.9 8.7 0.00 2.14 1.12 44 1003.5
20260504171657 79 130 3.5 10.4 0.00 2.14 1.12 45 1003.5
20260504171621 78 199 3.5 10.4 0.00 2.14 1.12 44 1003.5
20260504171517 78 175 2.6 10.4 0.00 2.14 1.12 44 1003.6
20260504171455 78 195 3.5 10.4 0.00 2.14 1.12 44 1003.6
20260504171403 78 115 2.6 10.4 0.00 2.14 1.12 45 1003.6
20260504171258 78 308 2.6 10.4 0.00 2.14 1.12 45 1003.6
20260504171221 78 206 3.5 10.4 0.00 2.14 1.12 44 1003.7
20260504171056 78 271 3.5 10.4 0.00 2.14 1.12 44 1003.6
20260504171011 78 253 3.5 10.4 0.00 2.14 1.12 45 1003.7
20260504170915 78 176 4.3 10.4 0.00 2.14 1.12 43 1003.6
20260504170810 78 304 4.3 10.4 0.00 2.14 1.12 45 1003.6
20260504170734 78 293 3.5 9.6 0.00 2.14 1.12 44 1003.6
20260504170612 78 223 3.5 9.6 0.00 2.14 1.12 46 1003.6
20260504170514 78 297 4.3 9.6 0.00 2.14 1.12 45 1003.6
20260504170409 78 303 4.3 8.7 0.00 2.14 1.12 46 1003.6
20260504170304 78 287 2.6 8.7 0.00 2.14 1.12 46 1003.5
20260504170208 78 130 1.7 7.0 0.00 2.14 1.12 47 1003.5
20260504170147 77 269 0.9 7.0 0.00 2.14 1.12 46 1003.5
20260504170113 77 251 1.7 10.4 0.00 2.14 1.12 46 1003.6
20260504160421 75 155 1.7 12.2 0.00 2.14 1.12 49 1003.8
20260504160254 75 281 3.5 12.2 0.00 2.14 1.12 48 1003.8
20260504160209 75 256 3.5 12.2 0.00 2.14 1.12 48 1003.9
20260504160123 75 301 3.5 12.2 0.00 2.14 1.12 48 1003.8
20260504151053 71 116 2.6 9.6 1.12 2.68 1.12 51 1004.1
20260504151008 72 285 3.5 9.6 1.12 2.68 1.12 51 1004.1
20260504150911 72 264 3.5 9.6 1.12 2.68 1.12 52 1004.1
20260504150807 71 266 3.5 9.6 1.12 2.68 1.12 52 1004.1
20260504150702 71 344 2.6 8.7 1.12 2.68 1.12 52 1004.1
20260504150610 71 175 1.7 8.7 1.12 2.68 1.12 52 1004.2
20260504150505 71 229 2.6 8.7 1.12 2.68 1.12 52 1004.1
20260504150429 71 216 2.6 9.6 1.12 2.68 1.12 51 1004.1
20260504150302 71 241 1.7 9.6 1.12 2.68 1.12 52 1004.1
20260504150158 71 291 3.5 9.6 1.12 2.68 1.12 52 1004.0
20260504150114 71 184 4.3 9.6 1.12 2.68 1.12 52 1004.1
20260504141317 70 205 5.2 10.4 0.00 1.77 0.00 53 1004.3
20260504141153 70 225 2.6 10.4 0.00 1.77 0.00 54 1004.2
20260504141106 69 146 1.7 7.8 0.00 1.77 0.00 55 1004.3
20260504141011 69 281 2.6 7.8 0.00 1.77 0.00 54 1004.3
20260504140905 69 281 2.6 7.8 0.00 1.77 0.00 55 1004.3
20260504140800 69 109 0.9 7.8 0.00 1.77 0.00 55 1004.2
20260504140708 69 186 0.0 7.8 0.00 1.77 0.00 55 1004.2
20260504140603 69 281 0.0 7.8 0.00 1.77 0.00 54 1004.2
20260504140458 69 134 0.9 7.8 0.00 1.77 0.00 55 1004.2
20260504140353 69 252 1.7 7.8 0.00 1.77 0.00 55 1004.2
20260504140317 69 156 0.9 6.1 0.00 1.77 0.00 55 1004.3
20260504140242 68 158 0.9 6.1 0.00 1.77 0.00 56 1004.3
20260504140146 68 65 0.0 6.1 0.00 1.77 0.00 56 1004.3
20260504140125 68 249 0.9 6.1 0.00 1.77 0.00 56 1004.3